Wetterdaten: Freitag, 08.07.2022
Datum Zeit Temp. Aussen Temp. o. S. Temp +5cm Feuchte Auss Luftdruck Regen Sonnenschein Regendauer Solar Windben Empfang
08.07.2022 00:00 16,3 C 15,6 C 12,2 C 73 % 1029,6 hPa 0,0 l/m 0 min 0 min 0 W/m 16,1 km/h (3 Bft) 97,87 %
08.07.2022 00:02 16,2 C 15,6 C 11,7 C 73 % 1029,5 hPa 0,0 l/m 0 min 0 min 0 W/m 9,7 km/h (2 Bft) 97,30 %
08.07.2022 00:04 16,2 C 15,6 C 12,2 C 74 % 1029,5 hPa 0,0 l/m 0 min 0 min 0 W/m 6,4 km/h (2 Bft) 97,87 %
08.07.2022 00:07 16,2 C 15,6 C 12,2 C 74 % 1029,6 hPa 0,0 l/m 0 min 0 min 0 W/m 9,7 km/h (2 Bft) 97,87 %
08.07.2022 00:08 16,2 C 15,6 C 12,2 C 74 % 1029,6 hPa 0,0 l/m 0 min 0 min 0 W/m 9,7 km/h (2 Bft) 96,81 %
08.07.2022 00:10 16,2 C 15,6 C 11,7 C 74 % 1029,6 hPa 0,0 l/m 0 min 0 min 0 W/m 3,2 km/h (1 Bft) 95,74 %
08.07.2022 00:12 16,2 C 15,6 C 11,7 C 74 % 1029,6 hPa 0,0 l/m 0 min 0 min 0 W/m 6,4 km/h (2 Bft) 97,87 %
08.07.2022 00:14 16,1 C 15,6 C 11,7 C 74 % 1029,6 hPa 0,0 l/m 0 min 0 min 0 W/m 6,4 km/h (2 Bft) 97,87 %
08.07.2022 00:16 16,1 C 15,6 C 11,7 C 74 % 1029,7 hPa 0,0 l/m 0 min 0 min 0 W/m 9,7 km/h (2 Bft) 97,87 %
08.07.2022 00:18 16,1 C 15,0 C 11,7 C 75 % 1029,7 hPa 0,0 l/m 0 min 0 min 0 W/m 9,7 km/h (2 Bft) 95,74 %
08.07.2022 00:20 16,1 C 15,0 C 11,7 C 75 % 1029,8 hPa 0,0 l/m 0 min 0 min 0 W/m 9,7 km/h (2 Bft) 95,65 %
08.07.2022 00:22 16,1 C 15,0 C 11,7 C 75 % 1029,8 hPa 0,0 l/m 0 min 0 min 0 W/m 12,9 km/h (3 Bft) 95,74 %
08.07.2022 00:24 16,0 C 15,0 C 11,7 C 75 % 1029,9 hPa 0,0 l/m 0 min 0 min 0 W/m 6,4 km/h (2 Bft) 91,49 %
08.07.2022 00:26 16,0 C 15,0 C 11,7 C 75 % 1029,9 hPa 0,0 l/m 0 min 0 min 0 W/m 3,2 km/h (1 Bft) 95,74 %
08.07.2022 00:28 16,0 C 15,0 C 11,7 C 75 % 1029,9 hPa 0,0 l/m 0 min 0 min 0 W/m 6,4 km/h (2 Bft) 95,74 %
08.07.2022 00:30 16,0 C 15,0 C 11,7 C 75 % 1029,9 hPa 0,0 l/m 0 min 0 min 0 W/m 12,9 km/h (3 Bft) 93,48 %
08.07.2022 00:32 15,9 C 15,0 C 11,7 C 75 % 1029,9 hPa 0,0 l/m 0 min 0 min 0 W/m 12,9 km/h (3 Bft) 95,74 %
08.07.2022 00:34 15,9 C 15,0 C 11,7 C 75 % 1029,9 hPa 0,0 l/m 0 min 0 min 0 W/m 9,7 km/h (2 Bft) 95,74 %
08.07.2022 00:36 15,9 C 15,0 C 11,7 C 75 % 1030,0 hPa 0,0 l/m 0 min 0 min 0 W/m 6,4 km/h (2 Bft) 95,74 %
08.07.2022 00:38 15,9 C 15,0 C 11,7 C 76 % 1029,9 hPa 0,0 l/m 0 min 0 min 0 W/m 9,7 km/h (2 Bft) 95,74 %
08.07.2022 00:40 15,9 C 15,0 C 11,7 C 76 % 1030,0 hPa 0,0 l/m 0 min 0 min 0 W/m 9,7 km/h (2 Bft) 97,87 %
08.07.2022 00:42 15,9 C 15,0 C 11,7 C 76 % 1029,9 hPa 0,0 l/m 0 min 0 min 0 W/m 12,9 km/h (3 Bft) 97,83 %
08.07.2022 00:44 15,8 C 15,0 C 11,7 C 76 % 1029,9 hPa 0,0 l/m 0 min 0 min 0 W/m 9,7 km/h (2 Bft) 97,87 %
08.07.2022 00:46 15,9 C 15,0 C 11,7 C 76 % 1030,0 hPa 0,0 l/m 0 min 0 min 0 W/m 12,9 km/h (3 Bft) 97,87 %
08.07.2022 00:48 15,9 C 15,0 C 11,7 C 76 % 1029,9 hPa 0,0 l/m 0 min 0 min 0 W/m 9,7 km/h (2 Bft) 97,87 %
08.07.2022 00:50 15,8 C 15,0 C 11,7 C 76 % 1029,9 hPa 0,0 l/m 0 min 0 min 0 W/m 12,9 km/h (3 Bft) 100,00 %
08.07.2022 00:52 15,8 C 15,0 C 11,7 C 76 % 1030,0 hPa 0,0 l/m 0 min 0 min 0 W/m 12,9 km/h (3 Bft) 100,00 %
08.07.2022 00:54 15,8 C 15,0 C 11,7 C 76 % 1030,0 hPa 0,0 l/m 0 min 0 min 0 W/m 9,7 km/h (2 Bft) 100,00 %
08.07.2022 00:56 15,8 C 15,0 C 11,7 C 76 % 1030,0 hPa 0,0 l/m 0 min 0 min 0 W/m 22,5 km/h (4 Bft) 100,00 %
08.07.2022 00:58 15,8 C 15,0 C 11,7 C 76 % 1030,0 hPa 0,0 l/m 0 min 0 min 0 W/m 9,7 km/h (2 Bft) 100,00 %
08.07.2022 01:00 15,8 C 15,0 C 11,7 C 76 % 1030,0 hPa 0,0 l/m 0 min 0 min 0 W/m 19,3 km/h (3 Bft) 100,00 %
08.07.2022 01:02 15,8 C 15,0 C 11,7 C 76 % 1030,0 hPa 0,0 l/m 0 min 0 min 0 W/m 16,1 km/h (3 Bft) 97,87 %
08.07.2022 01:04 15,8 C 15,0 C 11,7 C 76 % 1030,0 hPa 0,0 l/m 0 min 0 min 0 W/m 9,7 km/h (2 Bft) 100,00 %
08.07.2022 01:06 15,8 C 15,0 C 11,7 C 76 % 1030,0 hPa 0,0 l/m 0 min 0 min 0 W/m 9,7 km/h (2 Bft) 100,00 %
08.07.2022 01:08 15,8 C 15,0 C 11,7 C 76 % 1030,0 hPa 0,0 l/m 0 min 0 min 0 W/m 12,9 km/h (3 Bft) 100,00 %
08.07.2022 01:10 15,8 C 15,0 C 11,7 C 76 % 1030,0 hPa 0,0 l/m 0 min 0 min 0 W/m 16,1 km/h (3 Bft) 100,00 %
08.07.2022 01:12 15,8 C 15,0 C 11,7 C 76 % 1030,0 hPa 0,0 l/m 0 min 0 min 0 W/m 9,7 km/h (2 Bft) 95,74 %
08.07.2022 01:14 15,7 C 15,0 C 11,7 C 76 % 1030,0 hPa 0,0 l/m 0 min 0 min 0 W/m 6,4 km/h (2 Bft) 97,87 %
08.07.2022 01:16 15,8 C 15,0 C 11,7 C 77 % 1030,0 hPa 0,0 l/m 0 min 0 min 0 W/m 3,2 km/h (1 Bft) 97,87 %
08.07.2022 01:18 15,8 C 15,0 C 11,7 C 77 % 1030,0 hPa 0,0 l/m 0 min 0 min 0 W/m 6,4 km/h (2 Bft) 97,83 %
08.07.2022 01:20 15,8 C 15,0 C 11,7 C 77 % 1030,0 hPa 0,0 l/m 0 min 0 min 0 W/m 3,2 km/h (1 Bft) 93,62 %
08.07.2022 01:22 15,8 C 15,0 C 11,7 C 77 % 1030,1 hPa 0,0 l/m 0 min 0 min 0 W/m 9,7 km/h (2 Bft) 97,87 %
08.07.2022 01:24 15,8 C 15,0 C 11,7 C 77 % 1030,0 hPa 0,0 l/m 0 min 0 min 0 W/m 6,4 km/h (2 Bft) 97,87 %
08.07.2022 01:26 15,8 C 15,0 C 11,7 C 77 % 1030,0 hPa 0,0 l/m 0 min 0 min 0 W/m 6,4 km/h (2 Bft) 97,87 %
08.07.2022 01:28 15,8 C 15,0 C 11,7 C 78 % 1030,1 hPa 0,0 l/m 0 min 0 min 0 W/m 3,2 km/h (1 Bft) 97,87 %
08.07.2022 01:30 15,8 C 15,0 C 11,7 C 77 % 1030,0 hPa 0,0 l/m 0 min 0 min 0 W/m 9,7 km/h (2 Bft) 97,83 %
08.07.2022 01:32 15,8 C 15,0 C 11,7 C 78 % 1030,0 hPa 0,0 l/m 0 min 0 min 0 W/m 6,4 km/h (2 Bft) 97,87 %
08.07.2022 01:34 15,7 C 15,0 C 11,7 C 78 % 1030,0 hPa 0,0 l/m 0 min 0 min 0 W/m 9,7 km/h (2 Bft) 97,87 %
08.07.2022 01:36 15,7 C 15,0 C 11,7 C 78 % 1030,0 hPa 0,0 l/m 0 min 0 min 0 W/m 9,7 km/h (2 Bft) 97,87 %
08.07.2022 01:38 15,7 C 15,0 C 11,7 C 78 % 1030,0 hPa 0,0 l/m 0 min 0 min 0 W/m 6,4 km/h (2 Bft) 93,62 %
08.07.2022 01:40 15,7 C 15,0 C 11,7 C 78 % 1030,1 hPa 0,0 l/m 0 min 0 min 0 W/m 6,4 km/h (2 Bft) 97,87 %
08.07.2022 01:42 15,7 C 15,0 C 11,7 C 78 % 1030,0 hPa 0,0 l/m 0 min 0 min 0 W/m 6,4 km/h (2 Bft) 97,83 %
08.07.2022 01:44 15,7 C 15,0 C 11,7 C 79 % 1030,1 hPa 0,0 l/m 0 min 0 min 0 W/m 6,4 km/h (2 Bft) 97,87 %
08.07.2022 01:46 15,7 C 15,0 C 11,1 C 79 % 1030,1 hPa 0,0 l/m 0 min 0 min 0 W/m 9,7 km/h (2 Bft) 97,87 %
08.07.2022 01:48 15,7 C 14,4 C 11,1 C 79 % 1030,1 hPa 0,0 l/m 0 min 0 min 0 W/m 6,4 km/h (2 Bft) 97,87 %
08.07.2022 01:50 15,7 C 14,4 C 11,1 C 79 % 1030,1 hPa 0,0 l/m 0 min 0 min 0 W/m 6,4 km/h (2 Bft) 97,87 %
08.07.2022 01:52 15,6 C 15,0 C 11,1 C 79 % 1030,1 hPa 0,0 l/m 0 min 0 min 0 W/m 3,2 km/h (1 Bft) 95,65 %
08.07.2022 01:54 15,6 C 15,0 C 11,1 C 80 % 1030,0 hPa 0,0 l/m 0 min 0 min 0 W/m 6,4 km/h (2 Bft) 97,87 %
08.07.2022 01:56 15,6 C 14,4 C 11,1 C 80 % 1030,1 hPa 0,0 l/m 0 min 0 min 0 W/m 6,4 km/h (2 Bft) 97,87 %
08.07.2022 01:58 15,6 C 14,4 C 11,1 C 80 % 1030,1 hPa 0,0 l/m 0 min 0 min 0 W/m 6,4 km/h (2 Bft) 97,87 %
08.07.2022 02:00 15,6 C 14,4 C 11,1 C 80 % 1030,1 hPa 0,0 l/m 0 min 0 min 0 W/m 9,7 km/h (2 Bft) 97,87 %
08.07.2022 02:02 15,6 C 14,4 C 11,1 C 80 % 1030,1 hPa 0,0 l/m 0 min 0 min 0 W/m 6,4 km/h (2 Bft) 97,87 %
08.07.2022 02:04 15,6 C 14,4 C 11,1 C 80 % 1030,1 hPa 0,0 l/m 0 min 0 min 0 W/m 6,4 km/h (2 Bft) 100,00 %
08.07.2022 02:06 15,5 C 14,4 C 11,1 C 80 % 1030,1 hPa 0,0 l/m 0 min 0 min 0 W/m 9,7 km/h (2 Bft) 97,87 %
08.07.2022 02:08 15,5 C 14,4 C 11,1 C 80 % 1030,1 hPa 0,0 l/m 0 min 0 min 0 W/m 6,4 km/h (2 Bft) 95,74 %
08.07.2022 02:10 15,5 C 14,4 C 11,1 C 80 % 1030,1 hPa 0,0 l/m 0 min 0 min 0 W/m 6,4 km/h (2 Bft) 97,87 %
08.07.2022 02:12 15,4 C 14,4 C 11,1 C 80 % 1030,1 hPa 0,0 l/m 0 min 0 min 0 W/m 6,4 km/h (2 Bft) 95,74 %
08.07.2022 02:14 15,4 C 14,4 C 11,1 C 80 % 1030,1 hPa 0,0 l/m 0 min 0 min 0 W/m 3,2 km/h (1 Bft) 97,87 %
08.07.2022 02:16 15,4 C 14,4 C 11,1 C 80 % 1030,1 hPa 0,0 l/m 0 min 0 min 0 W/m 9,7 km/h (2 Bft) 95,65 %
08.07.2022 02:18 15,4 C 14,4 C 11,1 C 80 % 1030,1 hPa 0,0 l/m 0 min 0 min 0 W/m 6,4 km/h (2 Bft) 97,87 %
08.07.2022 02:20 15,4 C 14,4 C 11,1 C 80 % 1030,1 hPa 0,0 l/m 0 min 0 min 0 W/m 3,2 km/h (1 Bft) 95,74 %
08.07.2022 02:22 15,3 C 14,4 C 11,1 C 80 % 1030,1 hPa 0,0 l/m 0 min 0 min 0 W/m 6,4 km/h (2 Bft) 97,87 %
08.07.2022 02:24 15,3 C 14,4 C 11,1 C 80 % 1030,2 hPa 0,0 l/m 0 min 0 min 0 W/m 3,2 km/h (1 Bft) 97,87 %
08.07.2022 02:26 15,3 C 14,4 C 11,1 C 80 % 1030,1 hPa 0,0 l/m 0 min 0 min 0 W/m 3,2 km/h (1 Bft) 97,87 %
08.07.2022 02:28 15,3 C 14,4 C 11,1 C 80 % 1030,1 hPa 0,0 l/m 0 min 0 min 0 W/m 6,4 km/h (2 Bft) 95,65 %
08.07.2022 02:30 15,3 C 14,4 C 11,1 C 80 % 1030,2 hPa 0,0 l/m 0 min 0 min 0 W/m 3,2 km/h (1 Bft) 97,87 %
08.07.2022 02:32 15,3 C 14,4 C 11,1 C 80 % 1030,1 hPa 0,0 l/m 0 min 0 min 0 W/m 3,2 km/h (1 Bft) 97,87 %
08.07.2022 02:34 15,3 C 14,4 C 11,1 C 81 % 1030,2 hPa 0,0 l/m 0 min 0 min 0 W/m 0,0 km/h (0 Bft) 97,87 %
08.07.2022 02:36 15,3 C 14,4 C 11,1 C 81 % 1030,1 hPa 0,0 l/m 0 min 0 min 0 W/m 0,0 km/h (0 Bft) 97,87 %
08.07.2022 02:38 15,4 C 14,4 C 11,1 C 81 % 1030,2 hPa 0,0 l/m 0 min 0 min 0 W/m 0,0 km/h (0 Bft) 95,74 %
08.07.2022 02:40 15,4 C 14,4 C 11,1 C 81 % 1030,1 hPa 0,0 l/m 0 min 0 min 0 W/m 3,2 km/h (1 Bft) 100,00 %
08.07.2022 02:42 15,4 C 14,4 C 11,1 C 81 % 1030,1 hPa 0,0 l/m 0 min 0 min 0 W/m 0,0 km/h (0 Bft) 95,74 %
08.07.2022 02:44 15,4 C 14,4 C 11,1 C 81 % 1030,1 hPa 0,0 l/m 0 min 0 min 0 W/m 3,2 km/h (1 Bft) 97,87 %
08.07.2022 02:46 15,4 C 14,4 C 11,1 C 82 % 1030,2 hPa 0,0 l/m 0 min 0 min 0 W/m 3,2 km/h (1 Bft) 97,87 %
08.07.2022 02:48 15,4 C 14,4 C 11,1 C 82 % 1030,1 hPa 0,0 l/m 0 min 0 min 0 W/m 3,2 km/h (1 Bft) 97,87 %
08.07.2022 02:50 15,4 C 14,4 C 11,1 C 82 % 1030,2 hPa 0,0 l/m 0 min 0 min 0 W/m 3,2 km/h (1 Bft) 97,87 %
08.07.2022 02:52 15,4 C 14,4 C 11,1 C 82 % 1030,2 hPa 0,0 l/m 0 min 0 min 0 W/m 6,4 km/h (2 Bft) 97,83 %
08.07.2022 02:54 15,4 C 14,4 C 11,1 C 82 % 1030,2 hPa 0,0 l/m 0 min 0 min 0 W/m 6,4 km/h (2 Bft) 95,74 %
08.07.2022 02:56 15,3 C 14,4 C 11,1 C 81 % 1030,2 hPa 0,0 l/m 0 min 0 min 0 W/m 6,4 km/h (2 Bft) 95,74 %
08.07.2022 02:58 15,3 C 14,4 C 11,1 C 81 % 1030,2 hPa 0,0 l/m 0 min 0 min 0 W/m 3,2 km/h (1 Bft) 97,87 %
08.07.2022 03:00 15,3 C 14,4 C 11,1 C 82 % 1030,2 hPa 0,0 l/m 0 min 0 min 0 W/m 3,2 km/h (1 Bft) 97,87 %
08.07.2022 03:02 15,3 C 14,4 C 11,1 C 81 % 1030,2 hPa 0,0 l/m 0 min 0 min 0 W/m 3,2 km/h (1 Bft) 97,96 %
08.07.2022 03:04 15,3 C 14,4 C 11,1 C 81 % 1030,2 hPa 0,0 l/m 0 min 0 min 0 W/m 3,2 km/h (1 Bft) 95,74 %
08.07.2022 03:06 15,3 C 14,4 C 11,1 C 82 % 1030,3 hPa 0,0 l/m 0 min 0 min 0 W/m 6,4 km/h (2 Bft) 97,87 %
08.07.2022 03:08 15,3 C 14,4 C 11,1 C 82 % 1030,3 hPa 0,0 l/m 0 min 0 min 0 W/m 6,4 km/h (2 Bft) 97,92 %
08.07.2022 03:10 15,3 C 14,4 C 11,1 C 82 % 1030,2 hPa 0,0 l/m 0 min 0 min 0 W/m 6,4 km/h (2 Bft) 95,74 %
08.07.2022 03:12 15,3 C 14,4 C 11,1 C 82 % 1030,3 hPa 0,0 l/m 0 min 0 min 0 W/m 3,2 km/h (1 Bft) 97,87 %
08.07.2022 03:14 15,3 C 14,4 C 11,1 C 82 % 1030,3 hPa 0,0 l/m 0 min 0 min 0 W/m 3,2 km/h (1 Bft) 97,83 %
08.07.2022 03:16 15,3 C 14,4 C 11,1 C 82 % 1030,3 hPa 0,0 l/m 0 min 0 min 0 W/m 3,2 km/h (1 Bft) 95,74 %
08.07.2022 03:18 15,3 C 14,4 C 11,1 C 82 % 1030,3 hPa 0,0 l/m 0 min 0 min 0 W/m 3,2 km/h (1 Bft) 97,87 %
08.07.2022 03:20 15,2 C 14,4 C 11,1 C 82 % 1030,3 hPa 0,0 l/m 0 min 0 min 0 W/m 9,7 km/h (2 Bft) 97,87 %
08.07.2022 03:22 15,2 C 14,4 C 11,1 C 82 % 1030,3 hPa 0,0 l/m 0 min 0 min 0 W/m 6,4 km/h (2 Bft) 97,87 %
08.07.2022 03:24 15,2 C 14,4 C 11,1 C 82 % 1030,3 hPa 0,0 l/m 0 min 0 min 0 W/m 3,2 km/h (1 Bft) 97,87 %
08.07.2022 03:26 15,2 C 14,4 C 11,1 C 82 % 1030,4 hPa 0,0 l/m 0 min 0 min 0 W/m 6,4 km/h (2 Bft) 97,83 %
08.07.2022 03:28 15,2 C 14,4 C 11,1 C 82 % 1030,4 hPa 0,0 l/m 0 min 0 min 0 W/m 6,4 km/h (2 Bft) 97,87 %
08.07.2022 03:30 15,2 C 14,4 C 11,1 C 82 % 1030,4 hPa 0,0 l/m 0 min 0 min 0 W/m 3,2 km/h (1 Bft) 100,00 %
08.07.2022 03:32 15,2 C 14,4 C 11,1 C 82 % 1030,4 hPa 0,0 l/m 0 min 0 min 0 W/m 9,7 km/h (2 Bft) 100,00 %
08.07.2022 03:34 15,2 C 14,4 C 11,1 C 82 % 1030,3 hPa 0,0 l/m 0 min 0 min 0 W/m 6,4 km/h (2 Bft) 100,00 %
08.07.2022 03:36 15,1 C 14,4 C 11,1 C 82 % 1030,3 hPa 0,0 l/m 0 min 0 min 0 W/m 6,4 km/h (2 Bft) 97,87 %
08.07.2022 03:38 15,1 C 14,4 C 11,1 C 82 % 1030,3 hPa 0,0 l/m 0 min 0 min 0 W/m 3,2 km/h (1 Bft) 100,00 %
08.07.2022 03:40 15,1 C 14,4 C 11,1 C 82 % 1030,3 hPa 0,0 l/m 0 min 0 min 0 W/m 0,0 km/h (0 Bft) 100,00 %
08.07.2022 03:42 15,1 C 14,4 C 11,1 C 82 % 1030,2 hPa 0,0 l/m 0 min 0 min 0 W/m 6,4 km/h (2 Bft) 100,00 %
08.07.2022 03:44 15,1 C 14,4 C 11,1 C 82 % 1030,2 hPa 0,0 l/m 0 min 0 min 0 W/m 3,2 km/h (1 Bft) 100,00 %
08.07.2022 03:46 15,1 C 14,4 C 11,1 C 82 % 1030,3 hPa 0,0 l/m 0 min 0 min 0 W/m 3,2 km/h (1 Bft) 100,00 %
08.07.2022 03:48 15,1 C 14,4 C 11,1 C 82 % 1030,3 hPa 0,0 l/m 0 min 0 min 0 W/m 3,2 km/h (1 Bft) 100,00 %
08.07.2022 03:50 15,1 C 14,4 C 11,1 C 82 % 1030,3 hPa 0,0 l/m 0 min 0 min 0 W/m 6,4 km/h (2 Bft) 100,00 %
08.07.2022 03:52 15,1 C 14,4 C 11,1 C 82 % 1030,3 hPa 0,0 l/m 0 min 0 min 0 W/m 3,2 km/h (1 Bft) 100,00 %
08.07.2022 03:54 15,1 C 14,4 C 11,1 C 82 % 1030,2 hPa 0,0 l/m 0 min 0 min 0 W/m 6,4 km/h (2 Bft) 100,00 %
08.07.2022 03:56 15,1 C 14,4 C 11,1 C 82 % 1030,3 hPa 0,0 l/m 0 min 0 min 0 W/m 3,2 km/h (1 Bft) 100,00 %
08.07.2022 03:58 15,1 C 14,4 C 11,1 C 82 % 1030,3 hPa 0,0 l/m 0 min 0 min 0 W/m 6,4 km/h (2 Bft) 97,87 %
08.07.2022 04:00 15,0 C 14,4 C 10,6 C 82 % 1030,3 hPa 0,0 l/m 0 min 0 min 0 W/m 6,4 km/h (2 Bft) 97,87 %
08.07.2022 04:02 15,0 C 14,4 C 10,6 C 82 % 1030,3 hPa 0,0 l/m 0 min 0 min 0 W/m 3,2 km/h (1 Bft) 100,00 %
08.07.2022 04:04 15,0 C 14,4 C 11,1 C 82 % 1030,3 hPa 0,0 l/m 0 min 0 min 0 W/m 6,4 km/h (2 Bft) 100,00 %
08.07.2022 04:06 15,0 C 14,4 C 11,1 C 82 % 1030,3 hPa 0,0 l/m 0 min 0 min 0 W/m 6,4 km/h (2 Bft) 95,74 %
08.07.2022 04:08 14,9 C 14,4 C 11,1 C 82 % 1030,3 hPa 0,0 l/m 0 min 0 min 0 W/m 6,4 km/h (2 Bft) 97,87 %
08.07.2022 04:10 14,9 C 14,4 C 11,1 C 82 % 1030,3 hPa 0,0 l/m 0 min 0 min 0 W/m 6,4 km/h (2 Bft) 95,74 %
08.07.2022 04:12 14,9 C 14,4 C 11,1 C 82 % 1030,2 hPa 0,0 l/m 0 min 0 min 0 W/m 6,4 km/h (2 Bft) 95,65 %
08.07.2022 04:14 14,9 C 14,4 C 11,1 C 82 % 1030,2 hPa 0,0 l/m 0 min 0 min 0 W/m 6,4 km/h (2 Bft) 95,74 %
08.07.2022 04:16 14,9 C 14,4 C 11,1 C 82 % 1030,2 hPa 0,0 l/m 0 min 0 min 0 W/m 6,4 km/h (2 Bft) 93,62 %
08.07.2022 04:18 14,9 C 14,4 C 11,1 C 82 % 1030,2 hPa 0,0 l/m 0 min 0 min 0 W/m 9,7 km/h (2 Bft) 95,74 %
08.07.2022 04:20 14,9 C 14,4 C 11,1 C 82 % 1030,2 hPa 0,0 l/m 0 min 0 min 0 W/m 6,4 km/h (2 Bft) 95,74 %
08.07.2022 04:22 14,9 C 13,9 C 11,1 C 82 % 1030,2 hPa 0,0 l/m 0 min 0 min 0 W/m 3,2 km/h (1 Bft) 96,08 %
08.07.2022 04:24 14,9 C 13,9 C 10,6 C 82 % 1030,2 hPa 0,0 l/m 0 min 0 min 0 W/m 3,2 km/h (1 Bft) 95,56 %
08.07.2022 04:26 14,9 C 13,9 C 10,6 C 82 % 1030,2 hPa 0,0 l/m 0 min 0 min 0 W/m 6,4 km/h (2 Bft) 95,74 %
08.07.2022 04:28 14,9 C 13,9 C 10,6 C 82 % 1030,1 hPa 0,0 l/m 0 min 0 min 0 W/m 3,2 km/h (1 Bft) 97,87 %
08.07.2022 04:30 14,8 C 13,9 C 10,6 C 82 % 1030,2 hPa 0,0 l/m 0 min 0 min 0 W/m 9,7 km/h (2 Bft) 95,74 %
08.07.2022 04:32 14,9 C 13,9 C 11,1 C 82 % 1030,2 hPa 0,0 l/m 0 min 0 min 0 W/m 3,2 km/h (1 Bft) 97,87 %
08.07.2022 04:34 14,9 C 13,9 C 10,6 C 82 % 1030,2 hPa 0,0 l/m 0 min 0 min 0 W/m 3,2 km/h (1 Bft) 97,87 %
08.07.2022 04:36 14,8 C 13,9 C 10,6 C 82 % 1030,2 hPa 0,0 l/m 0 min 0 min 0 W/m 9,7 km/h (2 Bft) 97,83 %
08.07.2022 04:38 14,8 C 13,9 C 10,6 C 82 % 1030,1 hPa 0,0 l/m 0 min 0 min 0 W/m 9,7 km/h (2 Bft) 97,87 %
08.07.2022 04:40 14,8 C 13,9 C 10,6 C 82 % 1030,2 hPa 0,0 l/m 0 min 0 min 0 W/m 6,4 km/h (2 Bft) 95,74 %
08.07.2022 04:42 14,8 C 13,9 C 10,6 C 82 % 1030,2 hPa 0,0 l/m 0 min 0 min 0 W/m 9,7 km/h (2 Bft) 97,87 %
08.07.2022 04:44 14,8 C 13,9 C 10,6 C 82 % 1030,2 hPa 0,0 l/m 0 min 0 min 0 W/m 3,2 km/h (1 Bft) 93,62 %
08.07.2022 04:46 14,7 C 13,9 C 10,6 C 82 % 1030,2 hPa 0,0 l/m 0 min 0 min 0 W/m 6,4 km/h (2 Bft) 97,83 %
08.07.2022 04:48 14,7 C 13,9 C 10,6 C 82 % 1030,2 hPa 0,0 l/m 0 min 0 min 0 W/m 6,4 km/h (2 Bft) 93,62 %
08.07.2022 04:50 14,7 C 13,9 C 10,6 C 82 % 1030,2 hPa 0,0 l/m 0 min 0 min 0 W/m 9,7 km/h (2 Bft) 97,87 %
08.07.2022 04:52 14,7 C 13,9 C 10,6 C 82 % 1030,2 hPa 0,0 l/m 0 min 0 min 0 W/m 3,2 km/h (1 Bft) 97,87 %
08.07.2022 04:54 14,7 C 13,9 C 10,6 C 82 % 1030,3 hPa 0,0 l/m 0 min 0 min 0 W/m 3,2 km/h (1 Bft) 97,87 %
08.07.2022 04:56 14,7 C 13,9 C 10,6 C 82 % 1030,2 hPa 0,0 l/m 0 min 0 min 0 W/m 9,7 km/h (2 Bft) 97,87 %
08.07.2022 04:58 14,7 C 13,9 C 10,6 C 82 % 1030,3 hPa 0,0 l/m 0 min 0 min 0 W/m 9,7 km/h (2 Bft) 97,83 %
08.07.2022 05:00 14,7 C 13,9 C 10,6 C 82 % 1030,3 hPa 0,0 l/m 0 min 0 min 0 W/m 6,4 km/h (2 Bft) 97,87 %
08.07.2022 05:02 14,6 C 13,9 C 10,6 C 83 % 1030,3 hPa 0,0 l/m 0 min 0 min 0 W/m 6,4 km/h (2 Bft) 97,87 %
08.07.2022 05:04 14,6 C 13,9 C 10,6 C 83 % 1030,3 hPa 0,0 l/m 0 min 0 min 0 W/m 9,7 km/h (2 Bft) 95,74 %
08.07.2022 05:06 14,6 C 13,9 C 10,6 C 83 % 1030,3 hPa 0,0 l/m 0 min 0 min 0 W/m 6,4 km/h (2 Bft) 97,87 %
08.07.2022 05:08 14,6 C 13,9 C 10,6 C 83 % 1030,3 hPa 0,0 l/m 0 min 0 min 0 W/m 3,2 km/h (1 Bft) 100,00 %
08.07.2022 05:10 14,6 C 13,9 C 10,6 C 83 % 1030,4 hPa 0,0 l/m 0 min 0 min 0 W/m 6,4 km/h (2 Bft) 98,18 %
08.07.2022 05:12 14,6 C 13,9 C 10,6 C 83 % 1030,4 hPa 0,0 l/m 0 min 0 min 0 W/m 3,2 km/h (1 Bft) 100,00 %
08.07.2022 05:14 14,6 C 13,9 C 10,6 C 83 % 1030,4 hPa 0,0 l/m 0 min 0 min 0 W/m 6,4 km/h (2 Bft) 100,00 %
08.07.2022 05:16 14,6 C 13,9 C 10,6 C 83 % 1030,4 hPa 0,0 l/m 0 min 0 min 0 W/m 9,7 km/h (2 Bft) 95,74 %
08.07.2022 05:18 14,6 C 13,9 C 10,6 C 83 % 1030,4 hPa 0,0 l/m 0 min 0 min 0 W/m 9,7 km/h (2 Bft) 100,00 %
08.07.2022 05:20 14,5 C 13,9 C 10,6 C 83 % 1030,4 hPa 0,0 l/m 0 min 0 min 0 W/m 6,4 km/h (2 Bft) 97,87 %
08.07.2022 05:22 14,5 C 13,9 C 10,6 C 83 % 1030,4 hPa 0,0 l/m 0 min 0 min 0 W/m 6,4 km/h (2 Bft) 100,00 %
08.07.2022 05:24 14,5 C 13,9 C 10,6 C 83 % 1030,4 hPa 0,0 l/m 0 min 0 min 0 W/m 9,7 km/h (2 Bft) 100,00 %
08.07.2022 05:26 14,5 C 13,9 C 10,6 C 83 % 1030,4 hPa 0,0 l/m 0 min 0 min 0 W/m 6,4 km/h (2 Bft) 97,87 %
08.07.2022 05:28 14,4 C 13,9 C 10,6 C 83 % 1030,4 hPa 0,0 l/m 0 min 0 min 0 W/m 3,2 km/h (1 Bft) 100,00 %
08.07.2022 05:30 14,4 C 13,9 C 10,6 C 83 % 1030,4 hPa 0,0 l/m 0 min 0 min 0 W/m 6,4 km/h (2 Bft) 100,00 %
08.07.2022 05:32 14,4 C 13,9 C 10,6 C 83 % 1030,4 hPa 0,0 l/m 0 min 0 min 1 W/m 3,2 km/h (1 Bft) 97,87 %
08.07.2022 05:34 14,4 C 13,9 C 10,6 C 83 % 1030,4 hPa 0,0 l/m 0 min 0 min 5 W/m 6,4 km/h (2 Bft) 97,87 %
08.07.2022 05:36 14,4 C 13,9 C 10,6 C 83 % 1030,4 hPa 0,0 l/m 0 min 0 min 5 W/m 3,2 km/h (1 Bft) 97,83 %
08.07.2022 05:38 14,3 C 13,3 C 10,6 C 83 % 1030,4 hPa 0,0 l/m 0 min 0 min 6 W/m 6,4 km/h (2 Bft) 93,62 %
08.07.2022 05:40 14,3 C 13,3 C 10,6 C 83 % 1030,4 hPa 0,0 l/m 0 min 0 min 7 W/m 3,2 km/h (1 Bft) 98,00 %
08.07.2022 05:42 14,3 C 13,3 C 10,6 C 83 % 1030,4 hPa 0,0 l/m 0 min 0 min 7 W/m 6,4 km/h (2 Bft) 97,87 %
08.07.2022 05:44 14,3 C 13,3 C 10,6 C 83 % 1030,4 hPa 0,0 l/m 0 min 0 min 8 W/m 9,7 km/h (2 Bft) 97,87 %
08.07.2022 05:46 14,3 C 13,3 C 10,0 C 84 % 1030,4 hPa 0,0 l/m 0 min 0 min 10 W/m 3,2 km/h (1 Bft) 95,65 %
08.07.2022 05:48 14,3 C 13,3 C 10,0 C 84 % 1030,4 hPa 0,0 l/m 0 min 0 min 11 W/m 3,2 km/h (1 Bft) 95,74 %
08.07.2022 05:50 14,3 C 13,3 C 10,0 C 84 % 1030,4 hPa 0,0 l/m 0 min 0 min 12 W/m 3,2 km/h (1 Bft) 97,87 %
08.07.2022 05:52 14,3 C 13,3 C 10,0 C 84 % 1030,4 hPa 0,0 l/m 0 min 0 min 14 W/m 3,2 km/h (1 Bft) 95,74 %
08.07.2022 05:54 14,3 C 13,3 C 10,0 C 84 % 1030,5 hPa 0,0 l/m 0 min 0 min 14 W/m 3,2 km/h (1 Bft) 91,49 %
08.07.2022 05:56 14,3 C 13,3 C 10,0 C 84 % 1030,5 hPa 0,0 l/m 0 min 0 min 14 W/m 3,2 km/h (1 Bft) 95,74 %
08.07.2022 05:58 14,3 C 13,3 C 10,0 C 84 % 1030,5 hPa 0,0 l/m 0 min 0 min 14 W/m 6,4 km/h (2 Bft) 95,65 %
08.07.2022 06:00 14,3 C 13,3 C 10,0 C 84 % 1030,5 hPa 0,0 l/m 0 min 0 min 13 W/m 6,4 km/h (2 Bft) 95,74 %
08.07.2022 06:02 14,3 C 13,3 C 10,0 C 84 % 1030,6 hPa 0,0 l/m 0 min 0 min 12 W/m 6,4 km/h (2 Bft) 93,62 %
08.07.2022 06:04 14,3 C 13,3 C 10,0 C 84 % 1030,6 hPa 0,0 l/m 0 min 0 min 14 W/m 6,4 km/h (2 Bft) 95,74 %
08.07.2022 06:07 14,3 C 13,3 C 10,0 C 84 % 1030,6 hPa 0,0 l/m 0 min 0 min 14 W/m 3,2 km/h (1 Bft) 95,74 %
08.07.2022 06:08 14,3 C 13,3 C 10,0 C 84 % 1030,6 hPa 0,0 l/m 0 min 0 min 14 W/m 3,2 km/h (1 Bft) 94,74 %
08.07.2022 06:10 14,2 C 13,3 C 10,0 C 84 % 1030,6 hPa 0,0 l/m 0 min 0 min 16 W/m 6,4 km/h (2 Bft) 95,74 %
08.07.2022 06:12 14,2 C 13,3 C 10,0 C 84 % 1030,6 hPa 0,0 l/m 0 min 0 min 16 W/m 6,4 km/h (2 Bft) 95,74 %
08.07.2022 06:14 14,2 C 13,3 C 10,0 C 84 % 1030,6 hPa 0,0 l/m 0 min 0 min 18 W/m 3,2 km/h (1 Bft) 95,74 %
08.07.2022 06:16 14,1 C 12,8 C 9,4 C 84 % 1030,6 hPa 0,0 l/m 0 min 0 min 18 W/m 6,4 km/h (2 Bft) 97,87 %
08.07.2022 06:18 14,1 C 12,8 C 10,0 C 84 % 1030,6 hPa 0,0 l/m 0 min 0 min 19 W/m 6,4 km/h (2 Bft) 97,87 %
08.07.2022 06:20 14,1 C 12,8 C 9,4 C 84 % 1030,6 hPa 0,0 l/m 0 min 0 min 20 W/m 3,2 km/h (1 Bft) 97,83 %
08.07.2022 06:22 14,0 C 12,8 C 9,4 C 84 % 1030,5 hPa 0,0 l/m 0 min 0 min 21 W/m 0,0 km/h (0 Bft) 100,00 %
08.07.2022 06:24 14,0 C 12,8 C 9,4 C 84 % 1030,6 hPa 0,0 l/m 0 min 0 min 23 W/m 6,4 km/h (2 Bft) 100,00 %
08.07.2022 06:26 13,9 C 12,8 C 9,4 C 85 % 1030,6 hPa 0,0 l/m 0 min 0 min 25 W/m 3,2 km/h (1 Bft) 100,00 %
08.07.2022 06:28 13,9 C 12,8 C 9,4 C 84 % 1030,6 hPa 0,0 l/m 0 min 0 min 25 W/m 6,4 km/h (2 Bft) 100,00 %
08.07.2022 06:30 13,9 C 12,8 C 9,4 C 85 % 1030,6 hPa 0,0 l/m 0 min 0 min 26 W/m 3,2 km/h (1 Bft) 100,00 %
08.07.2022 06:32 13,9 C 12,8 C 9,4 C 85 % 1030,6 hPa 0,0 l/m 0 min 0 min 29 W/m 3,2 km/h (1 Bft) 100,00 %
08.07.2022 06:34 13,9 C 12,8 C 10,0 C 85 % 1030,6 hPa 0,0 l/m 0 min 0 min 30 W/m 6,4 km/h (2 Bft) 97,83 %
08.07.2022 06:36 13,9 C 12,8 C 10,0 C 85 % 1030,6 hPa 0,0 l/m 0 min 0 min 32 W/m 6,4 km/h (2 Bft) 100,00 %
08.07.2022 06:38 13,8 C 13,3 C 10,0 C 85 % 1030,6 hPa 0,0 l/m 0 min 0 min 32 W/m 3,2 km/h (1 Bft) 100,00 %
08.07.2022 06:40 13,8 C 13,3 C 10,0 C 85 % 1030,6 hPa 0,0 l/m 0 min 0 min 33 W/m 3,2 km/h (1 Bft) 100,00 %
08.07.2022 06:42 13,8 C 13,3 C 10,0 C 85 % 1030,7 hPa 0,0 l/m 0 min 0 min 36 W/m 6,4 km/h (2 Bft) 100,00 %
08.07.2022 06:44 13,9 C 13,3 C 10,0 C 85 % 1030,7 hPa 0,0 l/m 0 min 0 min 39 W/m 6,4 km/h (2 Bft) 97,83 %
08.07.2022 06:46 13,9 C 13,3 C 10,0 C 86 % 1030,8 hPa 0,0 l/m 0 min 0 min 42 W/m 6,4 km/h (2 Bft) 100,00 %
08.07.2022 06:48 13,9 C 13,3 C 10,0 C 85 % 1030,8 hPa 0,0 l/m 0 min 0 min 40 W/m 6,4 km/h (2 Bft) 100,00 %
08.07.2022 06:50 13,9 C 13,3 C 10,0 C 85 % 1030,8 hPa 0,0 l/m 0 min 0 min 41 W/m 9,7 km/h (2 Bft) 100,00 %
08.07.2022 06:52 13,9 C 13,3 C 10,0 C 85 % 1030,8 hPa 0,0 l/m 0 min 0 min 35 W/m 6,4 km/h (2 Bft) 100,00 %
08.07.2022 06:54 13,9 C 13,3 C 10,0 C 85 % 1030,9 hPa 0,0 l/m 0 min 0 min 31 W/m 9,7 km/h (2 Bft) 97,87 %
08.07.2022 06:56 13,9 C 13,3 C 10,0 C 85 % 1030,9 hPa 0,0 l/m 0 min 0 min 29 W/m 9,7 km/h (2 Bft) 97,83 %
08.07.2022 06:58 13,9 C 13,3 C 10,0 C 85 % 1031,0 hPa 0,0 l/m 0 min 0 min 28 W/m 6,4 km/h (2 Bft) 100,00 %
08.07.2022 07:00 13,9 C 13,3 C 10,0 C 85 % 1031,0 hPa 0,0 l/m 0 min 0 min 28 W/m 9,7 km/h (2 Bft) 100,00 %
08.07.2022 07:02 13,9 C 13,3 C 10,0 C 85 % 1031,0 hPa 0,0 l/m 0 min 0 min 28 W/m 6,4 km/h (2 Bft) 100,00 %
08.07.2022 07:04 14,0 C 13,3 C 10,0 C 86 % 1031,0 hPa 0,0 l/m 0 min 0 min 29 W/m 6,4 km/h (2 Bft) 100,00 %
08.07.2022 07:06 14,0 C 13,3 C 10,0 C 86 % 1031,0 hPa 0,0 l/m 0 min 0 min 30 W/m 6,4 km/h (2 Bft) 97,87 %
08.07.2022 07:08 14,0 C 13,3 C 10,0 C 86 % 1031,0 hPa 0,0 l/m 0 min 0 min 28 W/m 9,7 km/h (2 Bft) 97,83 %
08.07.2022 07:10 14,0 C 13,3 C 10,0 C 85 % 1031,1 hPa 0,0 l/m 0 min 0 min 28 W/m 9,7 km/h (2 Bft) 100,00 %
08.07.2022 07:12 14,0 C 13,3 C 10,0 C 85 % 1031,1 hPa 0,0 l/m 0 min 0 min 31 W/m 9,7 km/h (2 Bft) 97,87 %
08.07.2022 07:14 14,0 C 13,3 C 10,0 C 85 % 1031,1 hPa 0,0 l/m 0 min 0 min 32 W/m 9,7 km/h (2 Bft) 100,00 %
08.07.2022 07:16 14,0 C 13,3 C 10,0 C 85 % 1031,1 hPa 0,0 l/m 0 min 0 min 32 W/m 16,1 km/h (3 Bft) 100,00 %
08.07.2022 07:18 14,1 C 13,3 C 10,0 C 85 % 1031,1 hPa 0,0 l/m 0 min 0 min 33 W/m 16,1 km/h (3 Bft) 97,83 %
08.07.2022 07:20 14,1 C 13,3 C 10,0 C 85 % 1031,2 hPa 0,0 l/m 0 min 0 min 33 W/m 9,7 km/h (2 Bft) 100,00 %
08.07.2022 07:22 14,1 C 13,9 C 10,0 C 85 % 1031,1 hPa 0,0 l/m 0 min 0 min 34 W/m 9,7 km/h (2 Bft) 97,87 %
08.07.2022 07:24 14,1 C 13,9 C 10,6 C 85 % 1031,1 hPa 0,0 l/m 0 min 0 min 35 W/m 9,7 km/h (2 Bft) 97,87 %
08.07.2022 07:26 14,1 C 13,9 C 10,6 C 85 % 1031,1 hPa 0,0 l/m 0 min 0 min 35 W/m 6,4 km/h (2 Bft) 97,87 %
08.07.2022 07:28 14,1 C 13,9 C 10,6 C 85 % 1031,1 hPa 0,0 l/m 0 min 0 min 37 W/m 9,7 km/h (2 Bft) 97,87 %
08.07.2022 07:30 14,2 C 13,9 C 10,6 C 85 % 1031,2 hPa 0,0 l/m 0 min 0 min 38 W/m 9,7 km/h (2 Bft) 97,83 %
08.07.2022 07:32 14,3 C 13,9 C 10,6 C 85 % 1031,2 hPa 0,0 l/m 0 min 0 min 39 W/m 6,4 km/h (2 Bft) 95,74 %
08.07.2022 07:34 14,3 C 13,9 C 10,6 C 85 % 1031,2 hPa 0,0 l/m 0 min 0 min 39 W/m 9,7 km/h (2 Bft) 95,74 %
08.07.2022 07:36 14,3 C 13,9 C 10,6 C 85 % 1031,2 hPa 0,0 l/m 0 min 0 min 40 W/m 9,7 km/h (2 Bft) 95,74 %
08.07.2022 07:38 14,3 C 13,9 C 10,6 C 84 % 1031,3 hPa 0,0 l/m 0 min 0 min 42 W/m 9,7 km/h (2 Bft) 95,74 %
08.07.2022 07:40 14,3 C 13,9 C 10,6 C 84 % 1031,2 hPa 0,0 l/m 0 min 0 min 42 W/m 9,7 km/h (2 Bft) 93,62 %
08.07.2022 07:42 14,3 C 13,9 C 10,6 C 84 % 1031,3 hPa 0,0 l/m 0 min 0 min 43 W/m 12,9 km/h (3 Bft) 95,65 %
08.07.2022 07:44 14,4 C 13,9 C 10,6 C 84 % 1031,3 hPa 0,0 l/m 0 min 0 min 44 W/m 12,9 km/h (3 Bft) 93,62 %
08.07.2022 07:46 14,4 C 14,4 C 10,6 C 84 % 1031,2 hPa 0,0 l/m 0 min 0 min 66 W/m 16,1 km/h (3 Bft) 95,74 %
08.07.2022 07:48 14,5 C 14,4 C 10,6 C 84 % 1031,2 hPa 0,0 l/m 2 min 0 min 205 W/m 16,1 km/h (3 Bft) 93,62 %
08.07.2022 07:50 14,6 C 14,4 C 10,6 C 83 % 1031,2 hPa 0,0 l/m 2 min 0 min 273 W/m 9,7 km/h (2 Bft) 95,74 %
08.07.2022 07:52 14,6 C 14,4 C 11,1 C 83 % 1031,2 hPa 0,0 l/m 2 min 0 min 283 W/m 12,9 km/h (3 Bft) 95,74 %
08.07.2022 07:54 14,6 C 14,4 C 11,1 C 83 % 1031,2 hPa 0,0 l/m 2 min 0 min 272 W/m 16,1 km/h (3 Bft) 95,65 %
08.07.2022 07:56 14,7 C 14,4 C 11,1 C 83 % 1031,3 hPa 0,0 l/m 0 min 0 min 112 W/m 12,9 km/h (3 Bft) 91,49 %
08.07.2022 07:58 14,7 C 14,4 C 11,1 C 83 % 1031,3 hPa 0,0 l/m 0 min 0 min 54 W/m 9,7 km/h (2 Bft) 93,62 %
08.07.2022 08:00 14,8 C 15,0 C 11,1 C 83 % 1031,3 hPa 0,0 l/m 0 min 0 min 168 W/m 9,7 km/h (2 Bft) 95,92 %
08.07.2022 08:02 14,8 C 15,0 C 11,1 C 83 % 1031,3 hPa 0,0 l/m 2 min 0 min 305 W/m 12,9 km/h (3 Bft) 89,36 %
08.07.2022 08:04 14,9 C 15,0 C 11,1 C 83 % 1031,2 hPa 0,0 l/m 2 min 0 min 324 W/m 16,1 km/h (3 Bft) 95,65 %
08.07.2022 08:06 14,9 C 15,0 C 11,1 C 83 % 1031,3 hPa 0,0 l/m 2 min 0 min 328 W/m 6,4 km/h (2 Bft) 97,87 %
08.07.2022 08:08 15,1 C 15,6 C 11,1 C 83 % 1031,3 hPa 0,0 l/m 2 min 0 min 333 W/m 16,1 km/h (3 Bft) 97,87 %
08.07.2022 08:10 15,1 C 15,0 C 11,1 C 82 % 1031,3 hPa 0,0 l/m 0 min 0 min 170 W/m 16,1 km/h (3 Bft) 95,74 %
08.07.2022 08:12 15,2 C 15,0 C 11,1 C 81 % 1031,4 hPa 0,0 l/m 0 min 0 min 59 W/m 12,9 km/h (3 Bft) 100,00 %
08.07.2022 08:14 15,2 C 15,0 C 11,1 C 81 % 1031,3 hPa 0,0 l/m 0 min 0 min 55 W/m 12,9 km/h (3 Bft) 100,00 %
08.07.2022 08:16 15,2 C 15,0 C 11,1 C 81 % 1031,4 hPa 0,0 l/m 2 min 0 min 192 W/m 9,7 km/h (2 Bft) 100,00 %
08.07.2022 08:18 15,2 C 15,0 C 11,1 C 81 % 1031,5 hPa 0,0 l/m 2 min 0 min 250 W/m 6,4 km/h (2 Bft) 97,87 %
08.07.2022 08:20 15,2 C 15,6 C 11,1 C 81 % 1031,4 hPa 0,0 l/m 0 min 0 min 69 W/m 6,4 km/h (2 Bft) 97,87 %
08.07.2022 08:22 15,3 C 16,1 C 11,7 C 81 % 1031,4 hPa 0,0 l/m 2 min 0 min 280 W/m 6,4 km/h (2 Bft) 97,87 %
08.07.2022 08:24 15,4 C 16,7 C 11,7 C 81 % 1031,5 hPa 0,0 l/m 2 min 0 min 386 W/m 19,3 km/h (3 Bft) 97,87 %
08.07.2022 08:26 15,4 C 17,2 C 11,7 C 80 % 1031,5 hPa 0,0 l/m 2 min 0 min 371 W/m 12,9 km/h (3 Bft) 97,87 %
08.07.2022 08:28 15,6 C 17,2 C 12,2 C 80 % 1031,5 hPa 0,0 l/m 2 min 0 min 394 W/m 12,9 km/h (3 Bft) 97,83 %
08.07.2022 08:30 15,7 C 17,8 C 12,8 C 80 % 1031,5 hPa 0,0 l/m 2 min 0 min 427 W/m 12,9 km/h (3 Bft) 95,74 %
08.07.2022 08:32 15,9 C 18,3 C 12,8 C 79 % 1031,6 hPa 0,0 l/m 2 min 0 min 443 W/m 16,1 km/h (3 Bft) 95,74 %
08.07.2022 08:34 16,0 C 18,9 C 13,3 C 79 % 1031,6 hPa 0,0 l/m 2 min 0 min 445 W/m 16,1 km/h (3 Bft) 97,87 %
08.07.2022 08:36 16,1 C 18,9 C 13,9 C 78 % 1031,6 hPa 0,0 l/m 2 min 0 min 450 W/m 12,9 km/h (3 Bft) 97,87 %
08.07.2022 08:38 16,3 C 19,4 C 13,9 C 78 % 1031,5 hPa 0,0 l/m 2 min 0 min 470 W/m 12,9 km/h (3 Bft) 97,14 %
08.07.2022 08:40 16,5 C 20,0 C 14,4 C 77 % 1031,6 hPa 0,0 l/m 2 min 0 min 454 W/m 9,7 km/h (2 Bft) 97,87 %
08.07.2022 08:42 16,7 C 19,4 C 13,9 C 77 % 1031,6 hPa 0,0 l/m 2 min 0 min 319 W/m 9,7 km/h (2 Bft) 97,87 %
08.07.2022 08:44 16,7 C 18,9 C 13,9 C 76 % 1031,6 hPa 0,0 l/m 0 min 0 min 131 W/m 6,4 km/h (2 Bft) 97,83 %
08.07.2022 08:46 16,7 C 17,8 C 13,9 C 75 % 1031,6 hPa 0,0 l/m 0 min 0 min 130 W/m 6,4 km/h (2 Bft) 95,74 %
08.07.2022 08:48 16,7 C 18,3 C 13,9 C 76 % 1031,6 hPa 0,0 l/m 0 min 0 min 130 W/m 16,1 km/h (3 Bft) 97,87 %
08.07.2022 08:50 16,7 C 18,3 C 13,9 C 75 % 1031,6 hPa 0,0 l/m 0 min 0 min 130 W/m 6,4 km/h (2 Bft) 97,87 %
08.07.2022 08:52 16,7 C 18,3 C 13,9 C 75 % 1031,6 hPa 0,0 l/m 0 min 0 min 130 W/m 6,4 km/h (2 Bft) 97,87 %
08.07.2022 08:54 16,7 C 18,3 C 13,9 C 75 % 1031,6 hPa 0,0 l/m 0 min 0 min 130 W/m 6,4 km/h (2 Bft) 97,87 %
08.07.2022 08:56 16,8 C 18,9 C 13,9 C 75 % 1031,6 hPa 0,0 l/m 2 min 0 min 251 W/m 9,7 km/h (2 Bft) 97,83 %
08.07.2022 08:58 16,9 C 19,4 C 14,4 C 75 % 1031,7 hPa 0,0 l/m 2 min 0 min 568 W/m 12,9 km/h (3 Bft) 97,87 %
08.07.2022 09:00 17,1 C 20,0 C 14,4 C 75 % 1031,7 hPa 0,0 l/m 2 min 0 min 647 W/m 9,7 km/h (2 Bft) 97,87 %
08.07.2022 09:02 17,1 C 18,9 C 13,9 C 74 % 1031,7 hPa 0,0 l/m 0 min 0 min 221 W/m 22,5 km/h (4 Bft) 97,87 %
08.07.2022 09:04 17,1 C 18,9 C 13,9 C 73 % 1031,7 hPa 0,0 l/m 0 min 0 min 234 W/m 12,9 km/h (3 Bft) 97,87 %
08.07.2022 09:06 17,1 C 18,9 C 14,4 C 73 % 1031,7 hPa 0,0 l/m 2 min 0 min 247 W/m 12,9 km/h (3 Bft) 97,87 %
08.07.2022 09:08 17,2 C 18,9 C 14,4 C 74 % 1031,7 hPa 0,0 l/m 2 min 0 min 363 W/m 9,7 km/h (2 Bft) 97,83 %
08.07.2022 09:10 17,2 C 19,4 C 14,4 C 74 % 1031,7 hPa 0,0 l/m 2 min 0 min 285 W/m 9,7 km/h (2 Bft) 97,87 %
08.07.2022 09:12 17,2 C 18,9 C 14,4 C 74 % 1031,7 hPa 0,0 l/m 2 min 0 min 272 W/m 12,9 km/h (3 Bft) 95,74 %
08.07.2022 09:14 17,3 C 19,4 C 14,4 C 74 % 1031,8 hPa 0,0 l/m 2 min 0 min 313 W/m 12,9 km/h (3 Bft) 97,87 %
08.07.2022 09:16 17,3 C 20,6 C 15,0 C 73 % 1031,8 hPa 0,0 l/m 2 min 0 min 586 W/m 12,9 km/h (3 Bft) 95,74 %
08.07.2022 09:18 17,4 C 21,1 C 15,6 C 73 % 1031,7 hPa 0,0 l/m 2 min 0 min 647 W/m 16,1 km/h (3 Bft) 97,83 %
08.07.2022 09:20 17,6 C 21,7 C 15,6 C 73 % 1031,8 hPa 0,0 l/m 2 min 0 min 572 W/m 19,3 km/h (3 Bft) 97,87 %
08.07.2022 09:22 17,7 C 21,1 C 15,6 C 72 % 1031,8 hPa 0,0 l/m 2 min 0 min 427 W/m 12,9 km/h (3 Bft) 95,74 %
08.07.2022 09:24 17,8 C 20,0 C 15,0 C 72 % 1031,8 hPa 0,0 l/m 0 min 0 min 188 W/m 12,9 km/h (3 Bft) 97,87 %
08.07.2022 09:26 17,7 C 20,0 C 15,0 C 72 % 1031,8 hPa 0,0 l/m 0 min 0 min 251 W/m 9,7 km/h (2 Bft) 95,74 %
08.07.2022 09:28 17,7 C 20,6 C 15,0 C 72 % 1031,9 hPa 0,0 l/m 0 min 0 min 251 W/m 16,1 km/h (3 Bft) 95,74 %
08.07.2022 09:30 17,7 C 20,0 C 15,0 C 72 % 1031,8 hPa 0,0 l/m 0 min 0 min 251 W/m 12,9 km/h (3 Bft) 97,83 %
08.07.2022 09:32 17,7 C 20,0 C 15,0 C 72 % 1031,8 hPa 0,0 l/m 0 min 0 min 249 W/m 9,7 km/h (2 Bft) 97,87 %
08.07.2022 09:34 17,7 C 18,9 C 15,0 C 72 % 1031,9 hPa 0,0 l/m 0 min 0 min 247 W/m 19,3 km/h (3 Bft) 95,74 %
08.07.2022 09:36 17,7 C 20,0 C 15,0 C 72 % 1031,8 hPa 0,0 l/m 2 min 0 min 301 W/m 6,4 km/h (2 Bft) 97,87 %
08.07.2022 09:38 17,7 C 21,1 C 15,6 C 72 % 1031,8 hPa 0,0 l/m 2 min 0 min 614 W/m 19,3 km/h (3 Bft) 95,74 %
08.07.2022 09:40 17,7 C 22,2 C 16,1 C 72 % 1031,8 hPa 0,0 l/m 2 min 0 min 726 W/m 25,7 km/h (4 Bft) 95,74 %
08.07.2022 09:42 17,8 C 21,7 C 16,1 C 72 % 1031,8 hPa 0,0 l/m 2 min 0 min 701 W/m 12,9 km/h (3 Bft) 93,48 %
08.07.2022 09:44 17,8 C 20,6 C 16,1 C 72 % 1031,8 hPa 0,0 l/m 2 min 0 min 701 W/m 12,9 km/h (3 Bft) 95,74 %
08.07.2022 09:46 17,8 C 19,4 C 15,6 C 71 % 1031,8 hPa 0,0 l/m 0 min 0 min 221 W/m 9,7 km/h (2 Bft) 95,74 %
08.07.2022 09:48 17,7 C 19,4 C 15,6 C 71 % 1031,8 hPa 0,0 l/m 0 min 0 min 180 W/m 19,3 km/h (3 Bft) 95,74 %
08.07.2022 09:50 17,7 C 20,0 C 16,1 C 71 % 1031,8 hPa 0,0 l/m 2 min 0 min 661 W/m 12,9 km/h (3 Bft) 97,87 %
08.07.2022 09:52 17,7 C 20,6 C 16,1 C 72 % 1031,8 hPa 0,0 l/m 2 min 0 min 670 W/m 9,7 km/h (2 Bft) 97,87 %
08.07.2022 09:54 17,7 C 20,6 C 16,1 C 71 % 1031,7 hPa 0,0 l/m 2 min 0 min 672 W/m 6,4 km/h (2 Bft) 97,83 %
08.07.2022 09:56 17,8 C 21,1 C 16,7 C 71 % 1031,7 hPa 0,0 l/m 2 min 0 min 700 W/m 19,3 km/h (3 Bft) 97,87 %
08.07.2022 09:58 17,9 C 20,0 C 16,1 C 71 % 1031,7 hPa 0,0 l/m 2 min 0 min 594 W/m 16,1 km/h (3 Bft) 97,87 %
08.07.2022 10:00 17,9 C 19,4 C 15,6 C 71 % 1031,8 hPa 0,0 l/m 2 min 0 min 393 W/m 12,9 km/h (3 Bft) 95,74 %
08.07.2022 10:02 17,8 C 18,3 C 15,0 C 71 % 1031,7 hPa 0,0 l/m 0 min 0 min 156 W/m 12,9 km/h (3 Bft) 93,62 %
08.07.2022 10:04 17,7 C 17,8 C 14,4 C 71 % 1031,7 hPa 0,0 l/m 0 min 0 min 150 W/m 6,4 km/h (2 Bft) 95,74 %
08.07.2022 10:06 17,6 C 17,2 C 14,4 C 71 % 1031,8 hPa 0,0 l/m 0 min 0 min 140 W/m 19,3 km/h (3 Bft) 95,65 %
08.07.2022 10:08 17,4 C 17,2 C 13,9 C 71 % 1031,8 hPa 0,0 l/m 0 min 0 min 161 W/m 9,7 km/h (2 Bft) 94,44 %
08.07.2022 10:10 17,3 C 17,2 C 13,9 C 72 % 1031,8 hPa 0,0 l/m 0 min 0 min 188 W/m 6,4 km/h (2 Bft) 95,74 %
08.07.2022 10:12 17,2 C 17,8 C 14,4 C 72 % 1031,8 hPa 0,0 l/m 0 min 0 min 222 W/m 12,9 km/h (3 Bft) 95,74 %
08.07.2022 10:14 17,2 C 18,9 C 15,0 C 73 % 1031,9 hPa 0,0 l/m 2 min 0 min 690 W/m 9,7 km/h (2 Bft) 97,87 %
08.07.2022 10:16 17,3 C 20,0 C 15,6 C 73 % 1031,8 hPa 0,0 l/m 2 min 0 min 710 W/m 12,9 km/h (3 Bft) 97,83 %
08.07.2022 10:18 17,4 C 20,6 C 16,7 C 73 % 1031,8 hPa 0,0 l/m 2 min 0 min 729 W/m 6,4 km/h (2 Bft) 95,74 %
08.07.2022 10:20 17,6 C 21,1 C 16,7 C 72 % 1031,8 hPa 0,0 l/m 2 min 0 min 729 W/m 6,4 km/h (2 Bft) 97,87 %
08.07.2022 10:22 17,7 C 21,1 C 17,2 C 72 % 1031,8 hPa 0,0 l/m 2 min 0 min 716 W/m 9,7 km/h (2 Bft) 97,87 %
08.07.2022 10:24 17,9 C 21,1 C 17,8 C 72 % 1031,9 hPa 0,0 l/m 2 min 0 min 703 W/m 9,7 km/h (2 Bft) 97,87 %
08.07.2022 10:26 18,0 C 21,1 C 17,2 C 70 % 1031,9 hPa 0,0 l/m 2 min 0 min 719 W/m 12,9 km/h (3 Bft) 97,83 %
08.07.2022 10:28 18,1 C 21,1 C 17,8 C 70 % 1031,8 hPa 0,0 l/m 2 min 0 min 717 W/m 9,7 km/h (2 Bft) 97,87 %
08.07.2022 10:30 18,1 C 21,1 C 17,8 C 70 % 1031,8 hPa 0,0 l/m 2 min 0 min 719 W/m 12,9 km/h (3 Bft) 97,87 %
08.07.2022 10:32 18,2 C 21,1 C 18,3 C 70 % 1031,8 hPa 0,0 l/m 2 min 0 min 722 W/m 9,7 km/h (2 Bft) 97,87 %
08.07.2022 10:34 18,3 C 20,0 C 18,3 C 69 % 1031,8 hPa 0,0 l/m 2 min 0 min 722 W/m 9,7 km/h (2 Bft) 95,74 %
08.07.2022 10:36 18,4 C 20,6 C 19,4 C 70 % 1031,9 hPa 0,0 l/m 2 min 0 min 729 W/m 9,7 km/h (2 Bft) 97,87 %
08.07.2022 10:38 18,6 C 20,6 C 19,4 C 70 % 1031,9 hPa 0,0 l/m 2 min 0 min 733 W/m 9,7 km/h (2 Bft) 97,83 %
08.07.2022 10:40 18,6 C 20,6 C 18,9 C 69 % 1031,8 hPa 0,0 l/m 2 min 0 min 734 W/m 16,1 km/h (3 Bft) 100,00 %
08.07.2022 10:42 18,7 C 20,6 C 19,4 C 68 % 1031,8 hPa 0,0 l/m 2 min 0 min 742 W/m 9,7 km/h (2 Bft) 97,87 %
08.07.2022 10:44 18,8 C 20,0 C 19,4 C 68 % 1031,8 hPa 0,0 l/m 2 min 0 min 750 W/m 12,9 km/h (3 Bft) 100,00 %
08.07.2022 10:46 18,8 C 20,6 C 19,4 C 68 % 1031,8 hPa 0,0 l/m 2 min 0 min 754 W/m 9,7 km/h (2 Bft) 100,00 %
08.07.2022 10:48 18,9 C 20,6 C 20,0 C 68 % 1031,8 hPa 0,0 l/m 2 min 0 min 759 W/m 16,1 km/h (3 Bft) 100,00 %
08.07.2022 10:50 19,0 C 21,1 C 20,6 C 67 % 1031,8 hPa 0,0 l/m 2 min 0 min 763 W/m 12,9 km/h (3 Bft) 100,00 %
08.07.2022 10:52 19,1 C 21,1 C 20,6 C 67 % 1031,7 hPa 0,0 l/m 2 min 0 min 771 W/m 9,7 km/h (2 Bft) 95,65 %
08.07.2022 10:54 19,0 C 20,6 C 20,0 C 66 % 1031,8 hPa 0,0 l/m 2 min 0 min 772 W/m 9,7 km/h (2 Bft) 100,00 %
08.07.2022 10:56 19,1 C 21,1 C 19,4 C 68 % 1031,8 hPa 0,0 l/m 2 min 0 min 772 W/m 12,9 km/h (3 Bft) 97,87 %
08.07.2022 10:58 19,2 C 21,7 C 19,4 C 68 % 1031,8 hPa 0,0 l/m 2 min 0 min 778 W/m 9,7 km/h (2 Bft) 100,00 %
08.07.2022 11:00 19,2 C 22,2 C 18,9 C 67 % 1031,8 hPa 0,0 l/m 2 min 0 min 783 W/m 9,7 km/h (2 Bft) 100,00 %
08.07.2022 11:02 19,3 C 22,8 C 18,3 C 68 % 1031,8 hPa 0,0 l/m 2 min 0 min 791 W/m 6,4 km/h (2 Bft) 100,00 %
08.07.2022 11:04 19,5 C 22,8 C 17,8 C 67 % 1031,8 hPa 0,0 l/m 2 min 0 min 807 W/m 12,9 km/h (3 Bft) 100,00 %
08.07.2022 11:06 19,6 C 22,8 C 17,2 C 67 % 1031,8 hPa 0,0 l/m 2 min 0 min 821 W/m 19,3 km/h (3 Bft) 100,00 %
08.07.2022 11:08 19,6 C 22,2 C 16,7 C 67 % 1031,9 hPa 0,0 l/m 2 min 0 min 840 W/m 12,9 km/h (3 Bft) 100,00 %
08.07.2022 11:10 19,6 C 22,2 C 16,7 C 66 % 1031,8 hPa 0,0 l/m 2 min 0 min 857 W/m 9,7 km/h (2 Bft) 100,00 %
08.07.2022 11:12 19,6 C 22,2 C 16,7 C 66 % 1031,8 hPa 0,0 l/m 2 min 0 min 880 W/m 16,1 km/h (3 Bft) 100,00 %
08.07.2022 11:14 19,7 C 22,8 C 16,7 C 67 % 1031,8 hPa 0,0 l/m 2 min 0 min 903 W/m 19,3 km/h (3 Bft) 100,00 %
08.07.2022 11:16 19,8 C 22,2 C 16,7 C 66 % 1031,8 hPa 0,0 l/m 2 min 0 min 949 W/m 16,1 km/h (3 Bft) 100,00 %
08.07.2022 11:18 19,9 C 22,2 C 16,7 C 66 % 1031,8 hPa 0,0 l/m 2 min 0 min 963 W/m 9,7 km/h (2 Bft) 100,00 %
08.07.2022 11:20 19,9 C 22,2 C 17,2 C 65 % 1031,8 hPa 0,0 l/m 2 min 0 min 1004 W/m 12,9 km/h (3 Bft) 100,00 %
08.07.2022 11:22 19,9 C 22,2 C 17,2 C 65 % 1031,8 hPa 0,0 l/m 2 min 0 min 684 W/m 12,9 km/h (3 Bft) 100,00 %
08.07.2022 11:24 19,9 C 21,1 C 16,7 C 65 % 1031,8 hPa 0,0 l/m 2 min 0 min 399 W/m 6,4 km/h (2 Bft) 100,00 %
08.07.2022 11:26 19,9 C 21,1 C 17,2 C 65 % 1031,8 hPa 0,0 l/m 0 min 0 min 372 W/m 3,2 km/h (1 Bft) 100,00 %
08.07.2022 11:28 19,9 C 21,1 C 17,2 C 65 % 1031,8 hPa 0,0 l/m 0 min 0 min 375 W/m 6,4 km/h (2 Bft) 100,00 %
08.07.2022 11:30 19,9 C 20,6 C 17,2 C 65 % 1031,7 hPa 0,0 l/m 0 min 0 min 371 W/m 12,9 km/h (3 Bft) 100,00 %
08.07.2022 11:32 19,9 C 20,6 C 17,2 C 65 % 1031,8 hPa 0,0 l/m 0 min 0 min 372 W/m 6,4 km/h (2 Bft) 100,00 %
08.07.2022 11:34 19,9 C 20,6 C 17,2 C 64 % 1031,8 hPa 0,0 l/m 2 min 0 min 386 W/m 6,4 km/h (2 Bft) 97,87 %
08.07.2022 11:36 19,9 C 20,6 C 17,2 C 65 % 1031,8 hPa 0,0 l/m 2 min 0 min 416 W/m 6,4 km/h (2 Bft) 100,00 %
08.07.2022 11:38 19,9 C 20,6 C 17,2 C 65 % 1031,7 hPa 0,0 l/m 2 min 0 min 422 W/m 6,4 km/h (2 Bft) 100,00 %
08.07.2022 11:40 19,9 C 20,0 C 17,2 C 66 % 1031,7 hPa 0,0 l/m 2 min 0 min 438 W/m 6,4 km/h (2 Bft) 97,87 %
08.07.2022 11:42 19,8 C 21,1 C 17,8 C 66 % 1031,7 hPa 0,0 l/m 2 min 0 min 487 W/m 19,3 km/h (3 Bft) 97,87 %
08.07.2022 11:44 19,9 C 21,7 C 18,3 C 65 % 1031,8 hPa 0,0 l/m 2 min 0 min 636 W/m 16,1 km/h (3 Bft) 97,87 %
08.07.2022 11:46 19,9 C 22,2 C 20,0 C 65 % 1031,7 hPa 0,0 l/m 2 min 0 min 1049 W/m 12,9 km/h (3 Bft) 97,87 %
08.07.2022 11:48 20,1 C 22,8 C 21,1 C 66 % 1031,7 hPa 0,0 l/m 2 min 0 min 984 W/m 9,7 km/h (2 Bft) 95,65 %
08.07.2022 11:50 20,2 C 22,8 C 21,7 C 65 % 1031,7 hPa 0,0 l/m 2 min 0 min 944 W/m 16,1 km/h (3 Bft) 97,87 %
08.07.2022 11:52 20,3 C 23,3 C 21,7 C 65 % 1031,7 hPa 0,0 l/m 2 min 0 min 1001 W/m 12,9 km/h (3 Bft) 97,87 %
08.07.2022 11:54 20,5 C 23,9 C 22,2 C 65 % 1031,8 hPa 0,0 l/m 2 min 0 min 984 W/m 19,3 km/h (3 Bft) 97,87 %
08.07.2022 11:56 20,7 C 23,9 C 21,7 C 64 % 1031,7 hPa 0,0 l/m 2 min 0 min 927 W/m 12,9 km/h (3 Bft) 97,87 %
08.07.2022 11:58 20,7 C 23,3 C 21,1 C 63 % 1031,7 hPa 0,0 l/m 2 min 0 min 963 W/m 6,4 km/h (2 Bft) 97,87 %
08.07.2022 12:00 20,8 C 22,8 C 20,6 C 63 % 1031,7 hPa 0,0 l/m 2 min 0 min 884 W/m 19,3 km/h (3 Bft) 97,87 %
08.07.2022 12:02 20,9 C 22,8 C 20,0 C 63 % 1031,7 hPa 0,0 l/m 2 min 0 min 561 W/m 6,4 km/h (2 Bft) 97,83 %
08.07.2022 12:04 20,9 C 22,8 C 20,0 C 63 % 1031,7 hPa 0,0 l/m 2 min 0 min 590 W/m 12,9 km/h (3 Bft) 97,87 %
08.07.2022 12:07 21,0 C 22,8 C 19,4 C 62 % 1031,7 hPa 0,0 l/m 3 min 0 min 566 W/m 19,3 km/h (3 Bft) 97,87 %
08.07.2022 12:08 21,0 C 22,8 C 19,4 C 63 % 1031,7 hPa 0,0 l/m 1 min 0 min 540 W/m 19,3 km/h (3 Bft) 97,98 %
08.07.2022 12:10 20,9 C 22,2 C 19,4 C 62 % 1031,6 hPa 0,0 l/m 2 min 0 min 579 W/m 16,1 km/h (3 Bft) 97,87 %
08.07.2022 12:12 20,9 C 22,2 C 19,4 C 63 % 1031,6 hPa 0,0 l/m 2 min 0 min 671 W/m 12,9 km/h (3 Bft) 97,83 %
08.07.2022 12:14 20,8 C 21,7 C 18,9 C 63 % 1031,6 hPa 0,0 l/m 2 min 0 min 617 W/m 6,4 km/h (2 Bft) 97,87 %
08.07.2022 12:16 20,8 C 21,7 C 18,9 C 63 % 1031,6 hPa 0,0 l/m 2 min 0 min 543 W/m 9,7 km/h (2 Bft) 95,74 %
08.07.2022 12:18 20,9 C 21,7 C 18,9 C 63 % 1031,6 hPa 0,0 l/m 2 min 0 min 538 W/m 12,9 km/h (3 Bft) 100,00 %
08.07.2022 12:20 20,8 C 21,7 C 18,9 C 63 % 1031,6 hPa 0,0 l/m 2 min 0 min 584 W/m 16,1 km/h (3 Bft) 97,87 %
08.07.2022 12:22 20,7 C 21,7 C 18,9 C 63 % 1031,6 hPa 0,0 l/m 2 min 0 min 512 W/m 6,4 km/h (2 Bft) 100,00 %
08.07.2022 12:24 20,7 C 21,7 C 18,9 C 64 % 1031,6 hPa 0,0 l/m 2 min 0 min 495 W/m 9,7 km/h (2 Bft) 100,00 %
08.07.2022 12:26 20,7 C 21,7 C 18,9 C 63 % 1031,6 hPa 0,0 l/m 2 min 0 min 526 W/m 9,7 km/h (2 Bft) 100,00 %
08.07.2022 12:28 20,7 C 21,7 C 19,4 C 64 % 1031,6 hPa 0,0 l/m 2 min 0 min 562 W/m 9,7 km/h (2 Bft) 97,87 %
08.07.2022 12:30 20,7 C 22,8 C 20,6 C 65 % 1031,6 hPa 0,0 l/m 2 min 0 min 755 W/m 16,1 km/h (3 Bft) 97,87 %
08.07.2022 12:32 20,8 C 22,2 C 20,0 C 65 % 1031,7 hPa 0,0 l/m 2 min 0 min 719 W/m 19,3 km/h (3 Bft) 97,87 %
08.07.2022 12:34 20,9 C 22,8 C 20,0 C 65 % 1031,7 hPa 0,0 l/m 2 min 0 min 638 W/m 12,9 km/h (3 Bft) 95,65 %
08.07.2022 12:36 20,9 C 22,2 C 19,4 C 64 % 1031,7 hPa 0,0 l/m 2 min 0 min 542 W/m 19,3 km/h (3 Bft) 97,87 %
08.07.2022 12:38 20,8 C 21,7 C 19,4 C 64 % 1031,7 hPa 0,0 l/m 2 min 0 min 553 W/m 19,3 km/h (3 Bft) 97,87 %
08.07.2022 12:40 20,8 C 21,7 C 18,9 C 64 % 1031,7 hPa 0,0 l/m 2 min 0 min 505 W/m 12,9 km/h (3 Bft) 97,87 %
08.07.2022 12:42 20,7 C 21,7 C 18,9 C 65 % 1031,7 hPa 0,0 l/m 2 min 0 min 471 W/m 12,9 km/h (3 Bft) 95,74 %
08.07.2022 12:44 20,5 C 21,1 C 18,9 C 65 % 1031,7 hPa 0,0 l/m 2 min 0 min 433 W/m 6,4 km/h (2 Bft) 97,87 %
08.07.2022 12:46 20,4 C 21,7 C 19,4 C 66 % 1031,7 hPa 0,0 l/m 2 min 0 min 467 W/m 6,4 km/h (2 Bft) 97,83 %
08.07.2022 12:48 20,5 C 21,7 C 19,4 C 66 % 1031,7 hPa 0,0 l/m 2 min 0 min 498 W/m 6,4 km/h (2 Bft) 95,74 %
08.07.2022 12:50 20,5 C 21,7 C 18,9 C 65 % 1031,7 hPa 0,0 l/m 2 min 0 min 416 W/m 12,9 km/h (3 Bft) 95,74 %
08.07.2022 12:52 20,6 C 21,7 C 19,4 C 65 % 1031,7 hPa 0,0 l/m 2 min 0 min 493 W/m 6,4 km/h (2 Bft) 95,74 %
08.07.2022 12:54 20,6 C 22,2 C 20,6 C 66 % 1031,6 hPa 0,0 l/m 2 min 0 min 515 W/m 6,4 km/h (2 Bft) 95,74 %
08.07.2022 12:56 20,7 C 22,2 C 20,6 C 65 % 1031,6 hPa 0,0 l/m 2 min 0 min 575 W/m 12,9 km/h (3 Bft) 97,87 %
08.07.2022 12:58 20,8 C 22,2 C 21,1 C 65 % 1031,6 hPa 0,0 l/m 2 min 0 min 575 W/m 12,9 km/h (3 Bft) 93,48 %
08.07.2022 13:00 21,1 C 23,3 C 21,7 C 66 % 1031,6 hPa 0,0 l/m 2 min 0 min 851 W/m 9,7 km/h (2 Bft) 95,74 %
08.07.2022 13:02 21,3 C 23,9 C 22,2 C 65 % 1031,6 hPa 0,0 l/m 2 min 0 min 858 W/m 16,1 km/h (3 Bft) 97,14 %
08.07.2022 13:04 21,5 C 23,3 C 22,2 C 62 % 1031,6 hPa 0,0 l/m 2 min 0 min 859 W/m 12,9 km/h (3 Bft) 97,87 %
08.07.2022 13:06 21,6 C 23,9 C 22,2 C 63 % 1031,6 hPa 0,0 l/m 2 min 0 min 1110 W/m 6,4 km/h (2 Bft) 98,31 %
08.07.2022 13:08 21,7 C 23,3 C 21,1 C 64 % 1031,6 hPa 0,0 l/m 2 min 0 min 686 W/m 12,9 km/h (3 Bft) 94,29 %
08.07.2022 13:10 21,8 C 23,3 C 20,6 C 63 % 1031,6 hPa 0,0 l/m 2 min 0 min 465 W/m 16,1 km/h (3 Bft) 95,74 %
08.07.2022 13:12 21,8 C 23,3 C 19,4 C 63 % 1031,6 hPa 0,0 l/m 2 min 0 min 494 W/m 9,7 km/h (2 Bft) 97,87 %
08.07.2022 13:14 21,8 C 22,8 C 19,4 C 62 % 1031,6 hPa 0,0 l/m 2 min 0 min 468 W/m 12,9 km/h (3 Bft) 95,65 %
08.07.2022 13:16 21,8 C 22,2 C 18,3 C 62 % 1031,6 hPa 0,0 l/m 2 min 0 min 439 W/m 9,7 km/h (2 Bft) 97,87 %
08.07.2022 13:18 21,8 C 22,2 C 18,3 C 62 % 1031,6 hPa 0,0 l/m 2 min 0 min 429 W/m 16,1 km/h (3 Bft) 97,87 %
08.07.2022 13:20 21,7 C 22,2 C 18,3 C 62 % 1031,6 hPa 0,0 l/m 2 min 0 min 449 W/m 9,7 km/h (2 Bft) 97,87 %
08.07.2022 13:22 21,7 C 22,2 C 18,3 C 63 % 1031,7 hPa 0,0 l/m 2 min 0 min 461 W/m 16,1 km/h (3 Bft) 97,87 %
08.07.2022 13:24 21,7 C 22,2 C 18,3 C 63 % 1031,6 hPa 0,0 l/m 2 min 0 min 462 W/m 9,7 km/h (2 Bft) 95,74 %
08.07.2022 13:26 21,7 C 22,2 C 18,3 C 64 % 1031,6 hPa 0,0 l/m 2 min 0 min 470 W/m 6,4 km/h (2 Bft) 97,83 %
08.07.2022 13:28 21,7 C 22,8 C 18,9 C 64 % 1031,6 hPa 0,0 l/m 2 min 0 min 463 W/m 9,7 km/h (2 Bft) 97,87 %
08.07.2022 13:30 21,7 C 22,8 C 18,9 C 63 % 1031,5 hPa 0,0 l/m 2 min 0 min 454 W/m 6,4 km/h (2 Bft) 97,87 %
08.07.2022 13:32 21,8 C 22,8 C 18,9 C 64 % 1031,6 hPa 0,0 l/m 2 min 0 min 448 W/m 9,7 km/h (2 Bft) 97,87 %
08.07.2022 13:34 21,8 C 22,8 C 18,3 C 64 % 1031,6 hPa 0,0 l/m 2 min 0 min 463 W/m 6,4 km/h (2 Bft) 97,87 %
08.07.2022 13:36 21,8 C 22,8 C 18,9 C 64 % 1031,6 hPa 0,0 l/m 2 min 0 min 493 W/m 19,3 km/h (3 Bft) 96,55 %
08.07.2022 13:38 21,9 C 22,8 C 18,3 C 63 % 1031,6 hPa 0,0 l/m 2 min 0 min 507 W/m 22,5 km/h (4 Bft) 94,29 %
08.07.2022 13:40 21,9 C 22,8 C 18,9 C 63 % 1031,6 hPa 0,0 l/m 2 min 0 min 501 W/m 12,9 km/h (3 Bft) 97,87 %
08.07.2022 13:42 21,9 C 22,8 C 18,9 C 63 % 1031,6 hPa 0,0 l/m 2 min 0 min 502 W/m 12,9 km/h (3 Bft) 97,87 %
08.07.2022 13:44 22,0 C 22,2 C 18,3 C 63 % 1031,6 hPa 0,0 l/m 2 min 0 min 507 W/m 9,7 km/h (2 Bft) 95,74 %
08.07.2022 13:46 22,0 C 22,8 C 18,9 C 64 % 1031,6 hPa 0,0 l/m 2 min 0 min 488 W/m 6,4 km/h (2 Bft) 97,87 %
08.07.2022 13:48 22,1 C 22,8 C 18,9 C 63 % 1031,6 hPa 0,0 l/m 2 min 0 min 516 W/m 6,4 km/h (2 Bft) 95,65 %
08.07.2022 13:50 22,1 C 23,3 C 19,4 C 63 % 1031,6 hPa 0,0 l/m 2 min 0 min 540 W/m 9,7 km/h (2 Bft) 95,74 %
08.07.2022 13:52 22,2 C 23,9 C 20,0 C 63 % 1031,6 hPa 0,0 l/m 2 min 0 min 558 W/m 6,4 km/h (2 Bft) 95,74 %
08.07.2022 13:54 22,2 C 23,9 C 20,0 C 62 % 1031,6 hPa 0,0 l/m 2 min 0 min 549 W/m 6,4 km/h (2 Bft) 95,74 %
08.07.2022 13:56 22,3 C 23,9 C 20,0 C 62 % 1031,5 hPa 0,0 l/m 2 min 0 min 581 W/m 12,9 km/h (3 Bft) 93,62 %
08.07.2022 13:58 22,3 C 23,9 C 20,0 C 62 % 1031,4 hPa 0,0 l/m 2 min 0 min 624 W/m 16,1 km/h (3 Bft) 95,74 %
08.07.2022 14:00 22,4 C 24,4 C 20,6 C 62 % 1031,5 hPa 0,0 l/m 2 min 0 min 713 W/m 6,4 km/h (2 Bft) 95,65 %
08.07.2022 14:02 22,5 C 23,9 C 20,0 C 62 % 1031,5 hPa 0,0 l/m 2 min 0 min 710 W/m 9,7 km/h (2 Bft) 93,62 %
08.07.2022 14:04 22,6 C 24,4 C 20,0 C 61 % 1031,4 hPa 0,0 l/m 2 min 0 min 707 W/m 6,4 km/h (2 Bft) 93,62 %
08.07.2022 14:06 22,6 C 25,0 C 20,0 C 61 % 1031,4 hPa 0,0 l/m 2 min 0 min 707 W/m 12,9 km/h (3 Bft) 95,74 %
08.07.2022 14:08 22,7 C 24,4 C 20,0 C 61 % 1031,3 hPa 0,0 l/m 2 min 0 min 941 W/m 12,9 km/h (3 Bft) 92,73 %
08.07.2022 14:10 22,8 C 25,0 C 19,4 C 60 % 1031,3 hPa 0,0 l/m 2 min 0 min 922 W/m 9,7 km/h (2 Bft) 93,88 %
08.07.2022 14:12 22,9 C 25,6 C 20,0 C 61 % 1031,4 hPa 0,0 l/m 2 min 0 min 923 W/m 9,7 km/h (2 Bft) 93,62 %
08.07.2022 14:14 23,1 C 26,1 C 20,6 C 62 % 1031,3 hPa 0,0 l/m 2 min 0 min 923 W/m 12,9 km/h (3 Bft) 97,87 %
08.07.2022 14:16 23,2 C 25,6 C 20,0 C 61 % 1031,3 hPa 0,0 l/m 2 min 0 min 699 W/m 6,4 km/h (2 Bft) 97,87 %
08.07.2022 14:18 23,4 C 25,6 C 20,0 C 62 % 1031,3 hPa 0,0 l/m 2 min 0 min 770 W/m 16,1 km/h (3 Bft) 97,87 %
08.07.2022 14:20 23,5 C 25,6 C 20,0 C 60 % 1031,3 hPa 0,0 l/m 2 min 0 min 861 W/m 12,9 km/h (3 Bft) 97,83 %
08.07.2022 14:22 23,6 C 25,6 C 20,0 C 61 % 1031,3 hPa 0,0 l/m 2 min 0 min 923 W/m 12,9 km/h (3 Bft) 100,00 %
08.07.2022 14:24 23,6 C 25,0 C 20,0 C 60 % 1031,3 hPa 0,0 l/m 2 min 0 min 890 W/m 22,5 km/h (4 Bft) 100,00 %
08.07.2022 14:26 23,6 C 25,0 C 20,0 C 60 % 1031,3 hPa 0,0 l/m 2 min 0 min 852 W/m 9,7 km/h (2 Bft) 100,00 %
08.07.2022 14:28 23,6 C 25,0 C 20,0 C 60 % 1031,3 hPa 0,0 l/m 2 min 0 min 641 W/m 12,9 km/h (3 Bft) 100,00 %
08.07.2022 14:30 23,6 C 25,0 C 20,0 C 61 % 1031,4 hPa 0,0 l/m 2 min 0 min 601 W/m 19,3 km/h (3 Bft) 100,00 %
08.07.2022 14:32 23,6 C 25,0 C 20,0 C 61 % 1031,3 hPa 0,0 l/m 2 min 0 min 559 W/m 16,1 km/h (3 Bft) 100,00 %
08.07.2022 14:34 23,6 C 24,4 C 20,0 C 60 % 1031,3 hPa 0,0 l/m 2 min 0 min 503 W/m 16,1 km/h (3 Bft) 100,00 %
08.07.2022 14:36 23,5 C 24,4 C 20,0 C 60 % 1031,3 hPa 0,0 l/m 2 min 0 min 512 W/m 9,7 km/h (2 Bft) 100,00 %
08.07.2022 14:38 23,5 C 24,4 C 19,4 C 60 % 1031,3 hPa 0,0 l/m 2 min 0 min 566 W/m 9,7 km/h (2 Bft) 100,00 %
08.07.2022 14:40 23,5 C 24,4 C 19,4 C 61 % 1031,3 hPa 0,0 l/m 2 min 0 min 606 W/m 9,7 km/h (2 Bft) 100,00 %
08.07.2022 14:42 23,5 C 25,0 C 19,4 C 61 % 1031,2 hPa 0,0 l/m 2 min 0 min 598 W/m 12,9 km/h (3 Bft) 97,87 %
08.07.2022 14:44 23,5 C 24,4 C 19,4 C 61 % 1031,2 hPa 0,0 l/m 2 min 0 min 542 W/m 9,7 km/h (2 Bft) 89,13 %
08.07.2022 14:46 23,5 C 25,0 C 20,0 C 61 % 1031,2 hPa 0,0 l/m 2 min 0 min 522 W/m 19,3 km/h (3 Bft) 100,00 %
08.07.2022 14:48 23,4 C 24,4 C 19,4 C 60 % 1031,3 hPa 0,0 l/m 2 min 0 min 524 W/m 12,9 km/h (3 Bft) 100,00 %
08.07.2022 14:50 23,5 C 24,4 C 20,0 C 61 % 1031,2 hPa 0,0 l/m 2 min 0 min 595 W/m 9,7 km/h (2 Bft) 97,87 %
08.07.2022 14:52 23,5 C 25,0 C 20,0 C 61 % 1031,2 hPa 0,0 l/m 2 min 0 min 631 W/m 12,9 km/h (3 Bft) 100,00 %
08.07.2022 14:54 23,6 C 25,6 C 20,0 C 62 % 1031,2 hPa 0,0 l/m 2 min 0 min 1020 W/m 16,1 km/h (3 Bft) 100,00 %
08.07.2022 14:56 23,6 C 25,6 C 20,0 C 61 % 1031,2 hPa 0,0 l/m 2 min 0 min 670 W/m 9,7 km/h (2 Bft) 100,00 %
08.07.2022 14:58 23,6 C 25,6 C 20,0 C 61 % 1031,2 hPa 0,0 l/m 2 min 0 min 605 W/m 12,9 km/h (3 Bft) 97,87 %
08.07.2022 15:00 23,6 C 25,6 C 20,0 C 61 % 1031,2 hPa 0,0 l/m 2 min 0 min 606 W/m 6,4 km/h (2 Bft) 97,87 %
08.07.2022 15:02 23,7 C 25,0 C 20,0 C 61 % 1031,1 hPa 0,0 l/m 2 min 0 min 624 W/m 12,9 km/h (3 Bft) 97,87 %
08.07.2022 15:04 23,7 C 25,6 C 20,0 C 61 % 1031,1 hPa 0,0 l/m 2 min 0 min 604 W/m 9,7 km/h (2 Bft) 97,87 %
08.07.2022 15:06 23,8 C 25,0 C 20,0 C 61 % 1031,1 hPa 0,0 l/m 2 min 0 min 414 W/m 9,7 km/h (2 Bft) 97,87 %
08.07.2022 15:08 23,8 C 25,0 C 20,0 C 61 % 1031,1 hPa 0,0 l/m 2 min 0 min 480 W/m 16,1 km/h (3 Bft) 91,30 %
08.07.2022 15:10 23,8 C 25,6 C 20,0 C 61 % 1031,1 hPa 0,0 l/m 2 min 0 min 556 W/m 12,9 km/h (3 Bft) 82,98 %
08.07.2022 15:12 23,9 C 26,7 C 20,0 C 61 % 1031,1 hPa 0,0 l/m 2 min 0 min 1088 W/m 16,1 km/h (3 Bft) 95,74 %
08.07.2022 15:14 24,0 C 26,1 C 20,0 C 61 % 1031,2 hPa 0,0 l/m 2 min 0 min 817 W/m 19,3 km/h (3 Bft) 91,49 %
08.07.2022 15:16 23,9 C 25,0 C 19,4 C 61 % 1031,2 hPa 0,0 l/m 2 min 0 min 707 W/m 19,3 km/h (3 Bft) 93,62 %
08.07.2022 15:18 23,9 C 25,0 C 19,4 C 61 % 1031,1 hPa 0,0 l/m 0 min 0 min 344 W/m 12,9 km/h (3 Bft) 95,74 %
08.07.2022 15:20 23,8 C 23,9 C 19,4 C 60 % 1031,1 hPa 0,0 l/m 0 min 0 min 346 W/m 19,3 km/h (3 Bft) 93,48 %
08.07.2022 15:22 23,7 C 23,3 C 18,9 C 60 % 1031,2 hPa 0,0 l/m 0 min 0 min 261 W/m 19,3 km/h (3 Bft) 93,62 %
08.07.2022 15:24 23,5 C 22,8 C 18,9 C 60 % 1031,2 hPa 0,0 l/m 0 min 0 min 263 W/m 9,7 km/h (2 Bft) 97,87 %
08.07.2022 15:26 23,4 C 23,3 C 18,9 C 61 % 1031,1 hPa 0,0 l/m 0 min 0 min 332 W/m 6,4 km/h (2 Bft) 85,11 %
08.07.2022 15:28 23,3 C 23,9 C 18,9 C 62 % 1031,0 hPa 0,0 l/m 2 min 0 min 437 W/m 3,2 km/h (1 Bft) 89,36 %
08.07.2022 15:30 23,4 C 25,6 C 19,4 C 62 % 1031,0 hPa 0,0 l/m 2 min 0 min 1101 W/m 9,7 km/h (2 Bft) 87,23 %
08.07.2022 15:32 23,5 C 26,1 C 19,4 C 61 % 1031,0 hPa 0,0 l/m 2 min 0 min 1058 W/m 6,4 km/h (2 Bft) 84,78 %
08.07.2022 15:34 23,6 C 26,7 C 19,4 C 62 % 1031,0 hPa 0,0 l/m 2 min 0 min 1042 W/m 6,4 km/h (2 Bft) 72,34 %
08.07.2022 15:36 23,8 C 27,2 C 20,0 C 62 % 1030,8 hPa 0,0 l/m 2 min 0 min 1019 W/m 19,3 km/h (3 Bft) 72,34 %
08.07.2022 15:38 24,1 C 27,8 C 20,0 C 62 % 1030,9 hPa 0,0 l/m 2 min 0 min 1025 W/m 22,5 km/h (4 Bft) 85,11 %
08.07.2022 15:40 24,2 C 27,2 C 20,0 C 61 % 1031,0 hPa 0,0 l/m 2 min 0 min 1014 W/m 22,5 km/h (4 Bft) 76,60 %
08.07.2022 15:42 24,4 C 27,2 C 20,0 C 61 % 1031,0 hPa 0,0 l/m 2 min 0 min 1019 W/m 22,5 km/h (4 Bft) 76,60 %
08.07.2022 15:44 24,4 C 27,2 C 20,0 C 60 % 1031,0 hPa 0,0 l/m 2 min 0 min 1042 W/m 16,1 km/h (3 Bft) 100,00 %
08.07.2022 15:46 24,6 C 26,7 C 20,0 C 60 % 1031,0 hPa 0,0 l/m 2 min 0 min 972 W/m 9,7 km/h (2 Bft) 97,83 %
08.07.2022 15:48 24,6 C 26,1 C 20,0 C 60 % 1030,9 hPa 0,0 l/m 2 min 0 min 433 W/m 12,9 km/h (3 Bft) 97,87 %
08.07.2022 15:50 24,6 C 26,1 C 20,0 C 60 % 1030,9 hPa 0,0 l/m 2 min 0 min 474 W/m 12,9 km/h (3 Bft) 97,87 %
08.07.2022 15:52 24,6 C 26,7 C 20,0 C 59 % 1030,9 hPa 0,0 l/m 2 min 0 min 772 W/m 9,7 km/h (2 Bft) 95,74 %
08.07.2022 15:54 24,7 C 27,2 C 20,0 C 59 % 1030,9 hPa 0,0 l/m 2 min 0 min 770 W/m 9,7 km/h (2 Bft) 93,62 %
08.07.2022 15:56 24,6 C 27,2 C 20,0 C 59 % 1030,8 hPa 0,0 l/m 2 min 0 min 1060 W/m 6,4 km/h (2 Bft) 93,48 %
08.07.2022 15:58 24,5 C 26,1 C 20,0 C 60 % 1030,8 hPa 0,0 l/m 2 min 0 min 1055 W/m 12,9 km/h (3 Bft) 95,74 %
08.07.2022 16:00 24,4 C 26,1 C 20,0 C 60 % 1030,8 hPa 0,0 l/m 2 min 0 min 839 W/m 19,3 km/h (3 Bft) 95,74 %
08.07.2022 16:02 24,4 C 26,1 C 20,0 C 60 % 1030,8 hPa 0,0 l/m 2 min 0 min 424 W/m 19,3 km/h (3 Bft) 97,87 %
08.07.2022 16:04 24,4 C 26,1 C 20,0 C 61 % 1030,8 hPa 0,0 l/m 2 min 0 min 417 W/m 16,1 km/h (3 Bft) 97,87 %
08.07.2022 16:06 24,3 C 25,6 C 20,0 C 61 % 1030,8 hPa 0,0 l/m 2 min 0 min 367 W/m 19,3 km/h (3 Bft) 97,92 %
08.07.2022 16:08 24,2 C 25,0 C 20,0 C 60 % 1030,9 hPa 0,0 l/m 2 min 0 min 377 W/m 16,1 km/h (3 Bft) 95,65 %
08.07.2022 16:10 24,1 C 26,1 C 20,0 C 61 % 1030,8 hPa 0,0 l/m 2 min 0 min 381 W/m 9,7 km/h (2 Bft) 97,87 %
08.07.2022 16:12 24,1 C 27,2 C 20,0 C 62 % 1030,8 hPa 0,0 l/m 2 min 0 min 658 W/m 16,1 km/h (3 Bft) 97,87 %
08.07.2022 16:14 24,1 C 26,7 C 20,0 C 61 % 1030,8 hPa 0,0 l/m 2 min 0 min 718 W/m 19,3 km/h (3 Bft) 95,74 %
08.07.2022 16:16 24,1 C 26,1 C 20,0 C 62 % 1030,8 hPa 0,0 l/m 2 min 0 min 610 W/m 16,1 km/h (3 Bft) 97,87 %
08.07.2022 16:18 24,0 C 27,2 C 20,0 C 62 % 1030,8 hPa 0,0 l/m 2 min 0 min 812 W/m 6,4 km/h (2 Bft) 97,83 %
08.07.2022 16:20 24,1 C 26,7 C 20,0 C 62 % 1030,7 hPa 0,0 l/m 2 min 0 min 965 W/m 9,7 km/h (2 Bft) 97,87 %
08.07.2022 16:22 24,1 C 25,6 C 20,0 C 61 % 1030,8 hPa 0,0 l/m 2 min 0 min 463 W/m 12,9 km/h (3 Bft) 97,87 %
08.07.2022 16:24 24,0 C 25,0 C 20,0 C 61 % 1030,8 hPa 0,0 l/m 0 min 0 min 237 W/m 6,4 km/h (2 Bft) 100,00 %
08.07.2022 16:26 23,8 C 23,9 C 19,4 C 61 % 1030,8 hPa 0,0 l/m 0 min 0 min 251 W/m 3,2 km/h (1 Bft) 100,00 %
08.07.2022 16:28 23,6 C 23,3 C 19,4 C 62 % 1030,7 hPa 0,0 l/m 0 min 0 min 258 W/m 9,7 km/h (2 Bft) 100,00 %
08.07.2022 16:30 23,5 C 23,9 C 19,4 C 63 % 1030,7 hPa 0,0 l/m 0 min 0 min 284 W/m 9,7 km/h (2 Bft) 100,00 %
08.07.2022 16:32 23,6 C 24,4 C 19,4 C 63 % 1030,7 hPa 0,0 l/m 2 min 0 min 346 W/m 16,1 km/h (3 Bft) 97,87 %
08.07.2022 16:34 23,6 C 24,4 C 20,0 C 63 % 1030,7 hPa 0,0 l/m 2 min 0 min 401 W/m 12,9 km/h (3 Bft) 97,87 %
08.07.2022 16:36 23,6 C 26,1 C 20,0 C 63 % 1030,7 hPa 0,0 l/m 2 min 0 min 614 W/m 19,3 km/h (3 Bft) 93,62 %
08.07.2022 16:38 23,7 C 26,7 C 20,0 C 63 % 1030,7 hPa 0,0 l/m 2 min 0 min 925 W/m 16,1 km/h (3 Bft) 97,87 %
08.07.2022 16:40 23,8 C 25,6 C 20,0 C 63 % 1030,7 hPa 0,0 l/m 2 min 0 min 497 W/m 19,3 km/h (3 Bft) 97,87 %
08.07.2022 16:42 23,8 C 25,6 C 20,0 C 63 % 1030,6 hPa 0,0 l/m 0 min 0 min 314 W/m 6,4 km/h (2 Bft) 97,87 %
08.07.2022 16:44 23,8 C 25,0 C 20,0 C 63 % 1030,7 hPa 0,0 l/m 0 min 0 min 323 W/m 19,3 km/h (3 Bft) 97,83 %
08.07.2022 16:46 23,7 C 24,4 C 20,0 C 63 % 1030,6 hPa 0,0 l/m 0 min 0 min 262 W/m 12,9 km/h (3 Bft) 95,74 %
08.07.2022 16:48 23,7 C 23,9 C 19,4 C 63 % 1030,6 hPa 0,0 l/m 0 min 0 min 250 W/m 22,5 km/h (4 Bft) 97,87 %
08.07.2022 16:50 23,7 C 23,9 C 19,4 C 63 % 1030,6 hPa 0,0 l/m 0 min 0 min 291 W/m 16,1 km/h (3 Bft) 100,00 %
08.07.2022 16:52 23,7 C 24,4 C 20,0 C 63 % 1030,6 hPa 0,0 l/m 2 min 0 min 352 W/m 16,1 km/h (3 Bft) 95,74 %
08.07.2022 16:54 23,7 C 23,9 C 19,4 C 63 % 1030,6 hPa 0,0 l/m 0 min 0 min 222 W/m 12,9 km/h (3 Bft) 97,87 %
08.07.2022 16:56 23,6 C 24,4 C 19,4 C 63 % 1030,6 hPa 0,0 l/m 0 min 0 min 195 W/m 9,7 km/h (2 Bft) 95,74 %
08.07.2022 16:58 23,6 C 25,6 C 19,4 C 63 % 1030,6 hPa 0,0 l/m 2 min 0 min 352 W/m 6,4 km/h (2 Bft) 97,83 %
08.07.2022 17:00 23,6 C 26,1 C 20,0 C 63 % 1030,6 hPa 0,0 l/m 2 min 0 min 682 W/m 16,1 km/h (3 Bft) 97,87 %
08.07.2022 17:02 23,6 C 26,1 C 20,0 C 62 % 1030,5 hPa 0,0 l/m 2 min 0 min 388 W/m 19,3 km/h (3 Bft) 97,87 %
08.07.2022 17:04 23,6 C 27,2 C 19,4 C 63 % 1030,5 hPa 0,0 l/m 2 min 0 min 602 W/m 9,7 km/h (2 Bft) 93,62 %
08.07.2022 17:06 23,7 C 27,8 C 20,0 C 63 % 1030,5 hPa 0,0 l/m 2 min 0 min 740 W/m 12,9 km/h (3 Bft) 100,00 %
08.07.2022 17:08 23,8 C 28,3 C 20,0 C 62 % 1030,5 hPa 0,0 l/m 2 min 0 min 740 W/m 9,7 km/h (2 Bft) 97,83 %
08.07.2022 17:10 23,9 C 28,3 C 20,0 C 62 % 1030,4 hPa 0,0 l/m 2 min 0 min 663 W/m 9,7 km/h (2 Bft) 97,87 %
08.07.2022 17:12 24,0 C 28,9 C 20,0 C 62 % 1030,3 hPa 0,0 l/m 2 min 0 min 693 W/m 9,7 km/h (2 Bft) 97,87 %
08.07.2022 17:14 24,1 C 29,4 C 20,6 C 62 % 1030,3 hPa 0,0 l/m 2 min 0 min 757 W/m 6,4 km/h (2 Bft) 97,87 %
08.07.2022 17:16 24,2 C 28,9 C 20,6 C 62 % 1030,3 hPa 0,0 l/m 2 min 0 min 678 W/m 19,3 km/h (3 Bft) 97,87 %
08.07.2022 17:18 24,3 C 27,2 C 20,6 C 62 % 1030,3 hPa 0,0 l/m 2 min 0 min 383 W/m 12,9 km/h (3 Bft) 95,74 %
08.07.2022 17:20 24,4 C 26,7 C 20,6 C 61 % 1030,3 hPa 0,0 l/m 0 min 0 min 264 W/m 6,4 km/h (2 Bft) 97,83 %
08.07.2022 17:22 24,3 C 25,6 C 20,0 C 61 % 1030,3 hPa 0,0 l/m 0 min 0 min 264 W/m 6,4 km/h (2 Bft) 95,74 %
08.07.2022 17:24 24,2 C 25,6 C 20,0 C 62 % 1030,3 hPa 0,0 l/m 2 min 0 min 338 W/m 16,1 km/h (3 Bft) 97,87 %
08.07.2022 17:26 24,2 C 25,0 C 20,6 C 62 % 1030,4 hPa 0,0 l/m 2 min 0 min 353 W/m 12,9 km/h (3 Bft) 100,00 %
08.07.2022 17:28 24,2 C 25,0 C 20,0 C 62 % 1030,3 hPa 0,0 l/m 2 min 0 min 355 W/m 12,9 km/h (3 Bft) 100,00 %
08.07.2022 17:30 24,1 C 25,0 C 20,0 C 62 % 1030,3 hPa 0,0 l/m 2 min 0 min 318 W/m 9,7 km/h (2 Bft) 100,00 %
08.07.2022 17:32 24,1 C 25,0 C 20,0 C 62 % 1030,3 hPa 0,0 l/m 0 min 0 min 276 W/m 16,1 km/h (3 Bft) 97,83 %
08.07.2022 17:34 24,1 C 26,7 C 20,0 C 62 % 1030,2 hPa 0,0 l/m 2 min 0 min 504 W/m 12,9 km/h (3 Bft) 97,87 %
08.07.2022 17:36 24,2 C 27,8 C 20,6 C 63 % 1030,2 hPa 0,0 l/m 2 min 0 min 798 W/m 12,9 km/h (3 Bft) 97,87 %
08.07.2022 17:38 24,3 C 27,8 C 20,6 C 62 % 1030,1 hPa 0,0 l/m 2 min 0 min 698 W/m 9,7 km/h (2 Bft) 97,87 %
08.07.2022 17:40 24,4 C 27,2 C 20,6 C 63 % 1030,1 hPa 0,0 l/m 2 min 0 min 661 W/m 12,9 km/h (3 Bft) 95,74 %
08.07.2022 17:42 24,5 C 27,8 C 20,6 C 61 % 1030,1 hPa 0,0 l/m 2 min 0 min 409 W/m 19,3 km/h (3 Bft) 93,62 %
08.07.2022 17:44 24,6 C 28,3 C 21,1 C 61 % 1030,1 hPa 0,0 l/m 2 min 0 min 346 W/m 16,1 km/h (3 Bft) 97,83 %
08.07.2022 17:46 24,6 C 28,3 C 20,6 C 62 % 1030,1 hPa 0,0 l/m 2 min 0 min 461 W/m 12,9 km/h (3 Bft) 100,00 %
08.07.2022 17:48 24,6 C 28,3 C 20,6 C 61 % 1030,1 hPa 0,0 l/m 2 min 0 min 646 W/m 6,4 km/h (2 Bft) 95,74 %
08.07.2022 17:50 24,6 C 28,3 C 20,6 C 62 % 1030,1 hPa 0,0 l/m 2 min 0 min 598 W/m 6,4 km/h (2 Bft) 91,49 %
08.07.2022 17:52 24,6 C 26,7 C 20,6 C 61 % 1030,1 hPa 0,0 l/m 0 min 0 min 250 W/m 16,1 km/h (3 Bft) 95,74 %
08.07.2022 17:54 24,5 C 26,7 C 20,6 C 61 % 1030,0 hPa 0,0 l/m 2 min 0 min 334 W/m 12,9 km/h (3 Bft) 95,74 %
08.07.2022 17:56 24,5 C 27,2 C 20,6 C 62 % 1030,1 hPa 0,0 l/m 2 min 0 min 607 W/m 12,9 km/h (3 Bft) 95,65 %
08.07.2022 17:58 24,6 C 27,2 C 21,1 C 62 % 1030,1 hPa 0,0 l/m 2 min 0 min 635 W/m 12,9 km/h (3 Bft) 95,74 %
08.07.2022 18:00 24,6 C 27,2 C 21,1 C 62 % 1030,1 hPa 0,0 l/m 2 min 0 min 635 W/m 9,7 km/h (2 Bft) 95,74 %
08.07.2022 18:02 24,6 C 28,3 C 21,1 C 62 % 1030,0 hPa 0,0 l/m 2 min 0 min 635 W/m 12,9 km/h (3 Bft) 95,74 %
08.07.2022 18:04 24,8 C 28,3 C 21,1 C 62 % 1030,0 hPa 0,0 l/m 2 min 0 min 623 W/m 9,7 km/h (2 Bft) 95,74 %
08.07.2022 18:07 24,8 C 26,7 C 21,1 C 61 % 1030,0 hPa 0,0 l/m 0 min 0 min 148 W/m 9,7 km/h (2 Bft) 95,74 %
08.07.2022 18:08 24,8 C 26,1 C 20,6 C 61 % 1030,0 hPa 0,0 l/m 0 min 0 min 178 W/m 12,9 km/h (3 Bft) 95,05 %
08.07.2022 18:10 24,6 C 25,6 C 20,6 C 61 % 1030,0 hPa 0,0 l/m 0 min 0 min 191 W/m 12,9 km/h (3 Bft) 95,74 %
08.07.2022 18:12 24,6 C 25,0 C 20,0 C 62 % 1029,9 hPa 0,0 l/m 0 min 0 min 127 W/m 12,9 km/h (3 Bft) 95,74 %
08.07.2022 18:14 24,5 C 24,4 C 20,0 C 61 % 1029,9 hPa 0,0 l/m 0 min 0 min 125 W/m 19,3 km/h (3 Bft) 93,62 %
08.07.2022 18:16 24,4 C 23,9 C 20,0 C 61 % 1029,9 hPa 0,0 l/m 0 min 0 min 116 W/m 9,7 km/h (2 Bft) 95,74 %
08.07.2022 18:18 24,3 C 23,9 C 20,0 C 62 % 1029,9 hPa 0,0 l/m 0 min 0 min 105 W/m 12,9 km/h (3 Bft) 97,83 %
08.07.2022 18:20 24,2 C 23,3 C 19,4 C 62 % 1029,9 hPa 0,0 l/m 0 min 0 min 105 W/m 16,1 km/h (3 Bft) 95,74 %
08.07.2022 18:22 24,1 C 23,3 C 19,4 C 62 % 1029,9 hPa 0,0 l/m 0 min 0 min 96 W/m 3,2 km/h (1 Bft) 97,87 %
08.07.2022 18:24 24,0 C 23,3 C 19,4 C 63 % 1029,9 hPa 0,0 l/m 0 min 0 min 82 W/m 3,2 km/h (1 Bft) 100,00 %
08.07.2022 18:26 23,9 C 23,3 C 19,4 C 63 % 1029,9 hPa 0,0 l/m 0 min 0 min 72 W/m 9,7 km/h (2 Bft) 100,00 %
08.07.2022 18:28 23,9 C 23,3 C 19,4 C 63 % 1029,9 hPa 0,0 l/m 0 min 0 min 67 W/m 9,7 km/h (2 Bft) 97,87 %
08.07.2022 18:30 23,8 C 22,8 C 18,9 C 63 % 1029,8 hPa 0,0 l/m 0 min 0 min 68 W/m 6,4 km/h (2 Bft) 100,00 %
08.07.2022 18:32 23,8 C 22,8 C 18,9 C 64 % 1029,8 hPa 0,0 l/m 0 min 0 min 66 W/m 9,7 km/h (2 Bft) 100,00 %
08.07.2022 18:34 23,7 C 22,8 C 18,9 C 64 % 1029,8 hPa 0,0 l/m 0 min 0 min 72 W/m 12,9 km/h (3 Bft) 100,00 %
08.07.2022 18:36 23,6 C 22,8 C 18,9 C 64 % 1029,8 hPa 0,0 l/m 0 min 0 min 83 W/m 6,4 km/h (2 Bft) 100,00 %
08.07.2022 18:38 23,6 C 24,4 C 18,9 C 64 % 1029,8 hPa 0,0 l/m 0 min 0 min 190 W/m 9,7 km/h (2 Bft) 97,87 %
08.07.2022 18:40 23,6 C 25,0 C 19,4 C 65 % 1029,8 hPa 0,0 l/m 2 min 0 min 378 W/m 3,2 km/h (1 Bft) 100,00 %
08.07.2022 18:42 23,6 C 24,4 C 19,4 C 64 % 1029,8 hPa 0,0 l/m 0 min 0 min 89 W/m 6,4 km/h (2 Bft) 100,00 %
08.07.2022 18:44 23,6 C 23,9 C 19,4 C 64 % 1029,7 hPa 0,0 l/m 0 min 0 min 95 W/m 6,4 km/h (2 Bft) 100,00 %
08.07.2022 18:46 23,6 C 24,4 C 18,9 C 65 % 1029,7 hPa 0,0 l/m 0 min 0 min 137 W/m 6,4 km/h (2 Bft) 100,00 %
08.07.2022 18:48 23,6 C 25,6 C 19,4 C 65 % 1029,7 hPa 0,0 l/m 2 min 0 min 313 W/m 9,7 km/h (2 Bft) 100,00 %
08.07.2022 18:50 23,7 C 26,7 C 20,0 C 65 % 1029,7 hPa 0,0 l/m 2 min 0 min 383 W/m 6,4 km/h (2 Bft) 100,00 %
08.07.2022 18:52 23,8 C 27,8 C 20,0 C 65 % 1029,6 hPa 0,0 l/m 2 min 0 min 388 W/m 9,7 km/h (2 Bft) 100,00 %
08.07.2022 18:54 24,0 C 28,9 C 20,6 C 64 % 1029,6 hPa 0,0 l/m 2 min 0 min 435 W/m 9,7 km/h (2 Bft) 100,00 %
08.07.2022 18:56 24,2 C 28,9 C 20,6 C 63 % 1029,6 hPa 0,0 l/m 2 min 0 min 448 W/m 16,1 km/h (3 Bft) 100,00 %
08.07.2022 18:58 24,3 C 28,9 C 20,6 C 62 % 1029,6 hPa 0,0 l/m 2 min 0 min 447 W/m 12,9 km/h (3 Bft) 98,18 %
08.07.2022 19:00 24,5 C 28,9 C 21,1 C 64 % 1029,6 hPa 0,0 l/m 2 min 0 min 444 W/m 16,1 km/h (3 Bft) 100,00 %
08.07.2022 19:02 24,7 C 28,9 C 21,1 C 63 % 1029,6 hPa 0,0 l/m 2 min 0 min 425 W/m 9,7 km/h (2 Bft) 100,00 %
08.07.2022 19:04 24,8 C 28,3 C 21,1 C 62 % 1029,7 hPa 0,0 l/m 2 min 0 min 405 W/m 16,1 km/h (3 Bft) 100,00 %
08.07.2022 19:06 24,8 C 28,3 C 21,1 C 61 % 1029,6 hPa 0,0 l/m 2 min 0 min 392 W/m 22,5 km/h (4 Bft) 97,83 %
08.07.2022 19:08 24,9 C 28,3 C 21,1 C 61 % 1029,6 hPa 0,0 l/m 2 min 0 min 376 W/m 25,7 km/h (4 Bft) 100,00 %
08.07.2022 19:10 24,9 C 27,8 C 21,1 C 61 % 1029,6 hPa 0,0 l/m 2 min 0 min 359 W/m 12,9 km/h (3 Bft) 100,00 %
08.07.2022 19:12 24,9 C 27,2 C 21,1 C 60 % 1029,5 hPa 0,0 l/m 2 min 0 min 337 W/m 19,3 km/h (3 Bft) 100,00 %
08.07.2022 19:14 24,8 C 26,7 C 20,6 C 61 % 1029,6 hPa 0,0 l/m 2 min 0 min 333 W/m 12,9 km/h (3 Bft) 100,00 %
08.07.2022 19:16 24,8 C 26,1 C 20,6 C 61 % 1029,5 hPa 0,0 l/m 2 min 0 min 334 W/m 12,9 km/h (3 Bft) 97,87 %
08.07.2022 19:18 24,8 C 26,1 C 20,6 C 62 % 1029,6 hPa 0,0 l/m 2 min 0 min 348 W/m 12,9 km/h (3 Bft) 100,00 %
08.07.2022 19:20 24,8 C 25,6 C 20,6 C 62 % 1029,6 hPa 0,0 l/m 2 min 0 min 359 W/m 9,7 km/h (2 Bft) 100,00 %
08.07.2022 19:22 24,8 C 25,6 C 20,6 C 62 % 1029,5 hPa 0,0 l/m 2 min 0 min 368 W/m 12,9 km/h (3 Bft) 100,00 %
08.07.2022 19:24 24,9 C 25,6 C 20,6 C 63 % 1029,5 hPa 0,0 l/m 2 min 0 min 358 W/m 16,1 km/h (3 Bft) 100,00 %
08.07.2022 19:26 24,9 C 25,0 C 20,0 C 62 % 1029,5 hPa 0,0 l/m 2 min 0 min 328 W/m 16,1 km/h (3 Bft) 97,87 %
08.07.2022 19:28 24,9 C 25,0 C 20,0 C 62 % 1029,5 hPa 0,0 l/m 2 min 0 min 307 W/m 16,1 km/h (3 Bft) 97,87 %
08.07.2022 19:30 24,9 C 25,0 C 20,0 C 62 % 1029,5 hPa 0,0 l/m 2 min 0 min 294 W/m 16,1 km/h (3 Bft) 100,00 %
08.07.2022 19:32 24,9 C 25,0 C 20,0 C 61 % 1029,4 hPa 0,0 l/m 2 min 0 min 284 W/m 19,3 km/h (3 Bft) 100,00 %
08.07.2022 19:34 24,8 C 24,4 C 20,0 C 61 % 1029,4 hPa 0,0 l/m 2 min 0 min 275 W/m 12,9 km/h (3 Bft) 97,87 %
08.07.2022 19:36 24,8 C 24,4 C 20,0 C 61 % 1029,4 hPa 0,0 l/m 2 min 0 min 269 W/m 16,1 km/h (3 Bft) 100,00 %
08.07.2022 19:38 24,7 C 23,9 C 19,4 C 61 % 1029,4 hPa 0,0 l/m 2 min 0 min 260 W/m 16,1 km/h (3 Bft) 95,74 %
08.07.2022 19:40 24,6 C 23,9 C 19,4 C 61 % 1029,4 hPa 0,0 l/m 2 min 0 min 249 W/m 9,7 km/h (2 Bft) 95,74 %
08.07.2022 19:42 24,5 C 23,9 C 19,4 C 62 % 1029,4 hPa 0,0 l/m 2 min 0 min 217 W/m 9,7 km/h (2 Bft) 97,83 %
08.07.2022 19:44 24,4 C 23,3 C 19,4 C 61 % 1029,4 hPa 0,0 l/m 2 min 0 min 164 W/m 12,9 km/h (3 Bft) 97,87 %
08.07.2022 19:46 24,3 C 23,3 C 19,4 C 61 % 1029,3 hPa 0,0 l/m 2 min 0 min 203 W/m 9,7 km/h (2 Bft) 97,87 %
08.07.2022 19:48 24,3 C 23,3 C 18,9 C 62 % 1029,4 hPa 0,0 l/m 2 min 0 min 144 W/m 16,1 km/h (3 Bft) 97,87 %
08.07.2022 19:50 24,2 C 23,3 C 18,9 C 62 % 1029,4 hPa 0,0 l/m 2 min 0 min 134 W/m 3,2 km/h (1 Bft) 95,74 %
08.07.2022 19:52 24,1 C 22,8 C 18,9 C 62 % 1029,3 hPa 0,0 l/m 2 min 0 min 134 W/m 3,2 km/h (1 Bft) 95,65 %
08.07.2022 19:54 24,0 C 22,8 C 18,9 C 63 % 1029,3 hPa 0,0 l/m 2 min 0 min 132 W/m 9,7 km/h (2 Bft) 95,74 %
08.07.2022 19:56 23,9 C 22,8 C 18,9 C 63 % 1029,3 hPa 0,0 l/m 2 min 0 min 161 W/m 12,9 km/h (3 Bft) 93,62 %
08.07.2022 19:58 23,9 C 22,8 C 18,9 C 64 % 1029,3 hPa 0,0 l/m 2 min 0 min 143 W/m 12,9 km/h (3 Bft) 93,62 %
08.07.2022 20:00 23,8 C 22,8 C 18,9 C 64 % 1029,3 hPa 0,0 l/m 0 min 0 min 88 W/m 6,4 km/h (2 Bft) 95,74 %
08.07.2022 20:02 23,8 C 22,8 C 18,9 C 64 % 1029,2 hPa 0,0 l/m 0 min 0 min 61 W/m 6,4 km/h (2 Bft) 93,62 %
08.07.2022 20:04 23,8 C 22,8 C 18,9 C 65 % 1029,2 hPa 0,0 l/m 0 min 0 min 56 W/m 3,2 km/h (1 Bft) 95,65 %
08.07.2022 20:06 23,7 C 22,8 C 18,9 C 65 % 1029,2 hPa 0,0 l/m 0 min 0 min 53 W/m 6,4 km/h (2 Bft) 93,62 %
08.07.2022 20:08 23,7 C 22,8 C 18,9 C 65 % 1029,2 hPa 0,0 l/m 0 min 0 min 54 W/m 6,4 km/h (2 Bft) 91,49 %
08.07.2022 20:10 23,7 C 22,8 C 18,9 C 65 % 1029,2 hPa 0,0 l/m 0 min 0 min 53 W/m 9,7 km/h (2 Bft) 93,62 %
08.07.2022 20:12 23,6 C 22,8 C 18,9 C 65 % 1029,2 hPa 0,0 l/m 0 min 0 min 53 W/m 9,7 km/h (2 Bft) 93,62 %
08.07.2022 20:14 23,6 C 22,8 C 18,9 C 65 % 1029,2 hPa 0,0 l/m 0 min 0 min 53 W/m 6,4 km/h (2 Bft) 93,62 %
08.07.2022 20:16 23,6 C 22,8 C 18,9 C 65 % 1029,1 hPa 0,0 l/m 0 min 0 min 50 W/m 6,4 km/h (2 Bft) 93,48 %
08.07.2022 20:18 23,6 C 22,8 C 18,9 C 65 % 1029,1 hPa 0,0 l/m 0 min 0 min 46 W/m 9,7 km/h (2 Bft) 93,62 %
08.07.2022 20:20 23,5 C 22,8 C 18,9 C 65 % 1029,1 hPa 0,0 l/m 0 min 0 min 44 W/m 12,9 km/h (3 Bft) 91,49 %
08.07.2022 20:22 23,5 C 22,8 C 18,9 C 65 % 1029,1 hPa 0,0 l/m 0 min 0 min 44 W/m 9,7 km/h (2 Bft) 93,62 %
08.07.2022 20:24 23,4 C 22,8 C 18,9 C 65 % 1029,1 hPa 0,0 l/m 0 min 0 min 46 W/m 12,9 km/h (3 Bft) 93,62 %
08.07.2022 20:26 23,4 C 22,8 C 18,9 C 65 % 1029,1 hPa 0,0 l/m 0 min 0 min 46 W/m 9,7 km/h (2 Bft) 91,49 %
08.07.2022 20:28 23,4 C 22,8 C 18,9 C 65 % 1029,1 hPa 0,0 l/m 0 min 0 min 46 W/m 9,7 km/h (2 Bft) 95,65 %
08.07.2022 20:30 23,4 C 22,8 C 18,9 C 65 % 1029,1 hPa 0,0 l/m 0 min 0 min 46 W/m 9,7 km/h (2 Bft) 95,74 %
08.07.2022 20:32 23,3 C 22,2 C 18,3 C 65 % 1029,1 hPa 0,0 l/m 0 min 0 min 46 W/m 6,4 km/h (2 Bft) 91,49 %
08.07.2022 20:34 23,3 C 22,2 C 18,3 C 65 % 1029,1 hPa 0,0 l/m 0 min 0 min 42 W/m 9,7 km/h (2 Bft) 95,74 %
08.07.2022 20:36 23,3 C 22,2 C 18,3 C 65 % 1029,1 hPa 0,0 l/m 0 min 0 min 44 W/m 6,4 km/h (2 Bft) 93,62 %
08.07.2022 20:38 23,3 C 22,2 C 18,3 C 65 % 1029,1 hPa 0,0 l/m 0 min 0 min 44 W/m 3,2 km/h (1 Bft) 95,74 %
08.07.2022 20:40 23,2 C 22,2 C 18,3 C 65 % 1029,1 hPa 0,0 l/m 0 min 0 min 42 W/m 6,4 km/h (2 Bft) 97,83 %
08.07.2022 20:42 23,2 C 22,2 C 18,3 C 65 % 1029,1 hPa 0,0 l/m 0 min 0 min 41 W/m 6,4 km/h (2 Bft) 97,87 %
08.07.2022 20:44 23,2 C 22,2 C 18,3 C 65 % 1029,1 hPa 0,0 l/m 0 min 0 min 39 W/m 9,7 km/h (2 Bft) 95,74 %
08.07.2022 20:46 23,2 C 22,2 C 18,3 C 65 % 1029,1 hPa 0,0 l/m 0 min 0 min 36 W/m 6,4 km/h (2 Bft) 95,74 %
08.07.2022 20:48 23,1 C 22,2 C 18,3 C 66 % 1029,1 hPa 0,0 l/m 0 min 0 min 33 W/m 6,4 km/h (2 Bft) 97,87 %
08.07.2022 20:50 23,1 C 22,2 C 18,3 C 66 % 1029,0 hPa 0,0 l/m 0 min 0 min 32 W/m 9,7 km/h (2 Bft) 100,00 %
08.07.2022 20:52 23,1 C 22,2 C 18,3 C 65 % 1029,0 hPa 0,0 l/m 0 min 0 min 32 W/m 12,9 km/h (3 Bft) 97,83 %
08.07.2022 20:54 23,0 C 21,7 C 18,3 C 65 % 1029,0 hPa 0,0 l/m 0 min 0 min 32 W/m 3,2 km/h (1 Bft) 100,00 %
08.07.2022 20:56 22,9 C 21,7 C 17,8 C 65 % 1029,0 hPa 0,0 l/m 0 min 0 min 32 W/m 6,4 km/h (2 Bft) 100,00 %
08.07.2022 20:58 22,9 C 21,7 C 17,8 C 65 % 1029,1 hPa 0,0 l/m 0 min 0 min 30 W/m 9,7 km/h (2 Bft) 100,00 %
08.07.2022 21:00 22,8 C 21,7 C 17,8 C 65 % 1029,1 hPa 0,0 l/m 0 min 0 min 29 W/m 16,1 km/h (3 Bft) 97,87 %
08.07.2022 21:02 22,8 C 21,7 C 17,8 C 66 % 1029,2 hPa 0,0 l/m 0 min 0 min 28 W/m 3,2 km/h (1 Bft) 100,00 %
08.07.2022 21:04 22,7 C 21,7 C 17,8 C 66 % 1029,2 hPa 0,0 l/m 0 min 0 min 26 W/m 3,2 km/h (1 Bft) 100,00 %
08.07.2022 21:06 22,7 C 21,7 C 17,8 C 66 % 1029,2 hPa 0,0 l/m 0 min 0 min 24 W/m 3,2 km/h (1 Bft) 100,00 %
08.07.2022 21:08 22,7 C 21,7 C 17,8 C 66 % 1029,1 hPa 0,0 l/m 0 min 0 min 23 W/m 6,4 km/h (2 Bft) 100,00 %
08.07.2022 21:10 22,6 C 21,1 C 17,8 C 66 % 1029,1 hPa 0,0 l/m 0 min 0 min 22 W/m 6,4 km/h (2 Bft) 100,00 %
08.07.2022 21:12 22,6 C 21,1 C 17,8 C 66 % 1029,2 hPa 0,0 l/m 0 min 0 min 21 W/m 3,2 km/h (1 Bft) 98,00 %
08.07.2022 21:14 22,5 C 21,1 C 17,8 C 66 % 1029,1 hPa 0,0 l/m 0 min 0 min 20 W/m 6,4 km/h (2 Bft) 100,00 %
08.07.2022 21:16 22,4 C 21,1 C 17,2 C 66 % 1029,2 hPa 0,0 l/m 0 min 0 min 19 W/m 6,4 km/h (2 Bft) 100,00 %
08.07.2022 21:18 22,4 C 21,1 C 17,2 C 67 % 1029,2 hPa 0,0 l/m 0 min 0 min 17 W/m 0,0 km/h (0 Bft) 100,00 %
08.07.2022 21:20 22,3 C 21,1 C 17,2 C 67 % 1029,2 hPa 0,0 l/m 0 min 0 min 16 W/m 3,2 km/h (1 Bft) 100,00 %
08.07.2022 21:22 22,3 C 21,1 C 17,2 C 67 % 1029,2 hPa 0,0 l/m 0 min 0 min 16 W/m 3,2 km/h (1 Bft) 97,67 %
08.07.2022 21:24 22,2 C 21,1 C 17,2 C 67 % 1029,2 hPa 0,0 l/m 0 min 0 min 14 W/m 6,4 km/h (2 Bft) 97,87 %
08.07.2022 21:26 22,2 C 20,6 C 17,2 C 67 % 1029,2 hPa 0,0 l/m 0 min 0 min 13 W/m 3,2 km/h (1 Bft) 100,00 %
08.07.2022 21:28 22,1 C 20,6 C 17,2 C 68 % 1029,2 hPa 0,0 l/m 0 min 0 min 12 W/m 3,2 km/h (1 Bft) 100,00 %
08.07.2022 21:30 22,1 C 20,6 C 16,7 C 68 % 1029,2 hPa 0,0 l/m 0 min 0 min 11 W/m 3,2 km/h (1 Bft) 100,00 %
08.07.2022 21:32 22,1 C 20,6 C 16,7 C 68 % 1029,2 hPa 0,0 l/m 0 min 0 min 9 W/m 3,2 km/h (1 Bft) 100,00 %
08.07.2022 21:34 21,9 C 20,6 C 16,7 C 68 % 1029,2 hPa 0,0 l/m 0 min 0 min 8 W/m 6,4 km/h (2 Bft) 100,00 %
08.07.2022 21:36 21,9 C 20,6 C 16,7 C 68 % 1029,2 hPa 0,0 l/m 0 min 0 min 7 W/m 6,4 km/h (2 Bft) 100,00 %
08.07.2022 21:38 21,8 C 20,0 C 16,7 C 69 % 1029,2 hPa 0,0 l/m 0 min 0 min 6 W/m 6,4 km/h (2 Bft) 100,00 %
08.07.2022 21:40 21,8 C 20,0 C 16,7 C 69 % 1029,2 hPa 0,0 l/m 0 min 0 min 5 W/m 3,2 km/h (1 Bft) 97,87 %
08.07.2022 21:42 21,8 C 20,0 C 16,7 C 69 % 1029,1 hPa 0,0 l/m 0 min 0 min 5 W/m 3,2 km/h (1 Bft) 98,00 %
08.07.2022 21:44 21,7 C 20,0 C 16,7 C 69 % 1029,2 hPa 0,0 l/m 0 min 0 min 0 W/m 0,0 km/h (0 Bft) 97,87 %
08.07.2022 21:46 21,7 C 20,0 C 16,7 C 70 % 1029,1 hPa 0,0 l/m 0 min 0 min 0 W/m 0,0 km/h (0 Bft) 100,00 %
08.07.2022 21:48 21,6 C 20,0 C 16,1 C 70 % 1029,2 hPa 0,0 l/m 0 min 0 min 0 W/m 0,0 km/h (0 Bft) 100,00 %
08.07.2022 21:50 21,6 C 20,0 C 16,1 C 70 % 1029,1 hPa 0,0 l/m 0 min 0 min 0 W/m 3,2 km/h (1 Bft) 100,00 %
08.07.2022 21:52 21,6 C 20,0 C 16,1 C 70 % 1029,1 hPa 0,0 l/m 0 min 0 min 0 W/m 3,2 km/h (1 Bft) 97,87 %
08.07.2022 21:54 21,5 C 19,4 C 16,1 C 70 % 1029,1 hPa 0,0 l/m 0 min 0 min 0 W/m 6,4 km/h (2 Bft) 97,87 %
08.07.2022 21:56 21,4 C 19,4 C 16,1 C 71 % 1029,2 hPa 0,0 l/m 0 min 0 min 0 W/m 6,4 km/h (2 Bft) 97,67 %
08.07.2022 21:58 21,4 C 19,4 C 16,1 C 71 % 1029,2 hPa 0,0 l/m 0 min 0 min 0 W/m 3,2 km/h (1 Bft) 98,00 %
08.07.2022 22:00 21,3 C 19,4 C 16,1 C 71 % 1029,3 hPa 0,0 l/m 0 min 0 min 0 W/m 0,0 km/h (0 Bft) 97,87 %
08.07.2022 22:02 21,3 C 19,4 C 15,6 C 71 % 1029,2 hPa 0,0 l/m 0 min 0 min 0 W/m 3,2 km/h (1 Bft) 97,83 %
08.07.2022 22:04 21,3 C 19,4 C 15,6 C 71 % 1029,3 hPa 0,0 l/m 0 min 0 min 0 W/m 3,2 km/h (1 Bft) 95,74 %
08.07.2022 22:06 21,2 C 19,4 C 15,6 C 71 % 1029,2 hPa 0,0 l/m 0 min 0 min 0 W/m 3,2 km/h (1 Bft) 97,87 %
08.07.2022 22:08 21,1 C 18,9 C 15,6 C 72 % 1029,3 hPa 0,0 l/m 0 min 0 min 0 W/m 3,2 km/h (1 Bft) 97,87 %
08.07.2022 22:10 21,1 C 18,9 C 15,6 C 72 % 1029,3 hPa 0,0 l/m 0 min 0 min 0 W/m 3,2 km/h (1 Bft) 97,87 %
08.07.2022 22:12 21,1 C 18,9 C 15,6 C 72 % 1029,3 hPa 0,0 l/m 0 min 0 min 0 W/m 3,2 km/h (1 Bft) 100,00 %
08.07.2022 22:14 21,0 C 18,9 C 15,6 C 72 % 1029,3 hPa 0,0 l/m 0 min 0 min 0 W/m 3,2 km/h (1 Bft) 97,87 %
08.07.2022 22:16 20,9 C 18,9 C 15,6 C 72 % 1029,3 hPa 0,0 l/m 0 min 0 min 0 W/m 0,0 km/h (0 Bft) 97,87 %
08.07.2022 22:18 20,9 C 18,9 C 15,6 C 73 % 1029,3 hPa 0,0 l/m 0 min 0 min 0 W/m 0,0 km/h (0 Bft) 97,87 %
08.07.2022 22:20 20,8 C 18,9 C 15,0 C 73 % 1029,4 hPa 0,0 l/m 0 min 0 min 0 W/m 0,0 km/h (0 Bft) 97,87 %
08.07.2022 22:22 20,8 C 18,9 C 15,0 C 73 % 1029,3 hPa 0,0 l/m 0 min 0 min 0 W/m 0,0 km/h (0 Bft) 97,87 %
08.07.2022 22:24 20,7 C 18,9 C 15,0 C 73 % 1029,3 hPa 0,0 l/m 0 min 0 min 0 W/m 3,2 km/h (1 Bft) 100,00 %
08.07.2022 22:26 20,7 C 18,9 C 15,0 C 73 % 1029,3 hPa 0,0 l/m 0 min 0 min 0 W/m 3,2 km/h (1 Bft) 95,74 %
08.07.2022 22:28 20,6 C 18,9 C 15,0 C 74 % 1029,3 hPa 0,0 l/m 0 min 0 min 0 W/m 0,0 km/h (0 Bft) 100,00 %
08.07.2022 22:30 20,6 C 18,9 C 15,0 C 74 % 1029,3 hPa 0,0 l/m 0 min 0 min 0 W/m 0,0 km/h (0 Bft) 100,00 %
08.07.2022 22:32 20,5 C 18,3 C 15,0 C 74 % 1029,3 hPa 0,0 l/m 0 min 0 min 0 W/m 0,0 km/h (0 Bft) 97,87 %
08.07.2022 22:34 20,4 C 18,3 C 15,0 C 74 % 1029,3 hPa 0,0 l/m 0 min 0 min 0 W/m 0,0 km/h (0 Bft) 100,00 %
08.07.2022 22:36 20,4 C 18,3 C 15,0 C 75 % 1029,3 hPa 0,0 l/m 0 min 0 min 0 W/m 0,0 km/h (0 Bft) 97,83 %
08.07.2022 22:38 20,3 C 18,3 C 15,0 C 75 % 1029,3 hPa 0,0 l/m 0 min 0 min 0 W/m 0,0 km/h (0 Bft) 100,00 %
08.07.2022 22:40 20,3 C 18,3 C 15,0 C 75 % 1029,3 hPa 0,0 l/m 0 min 0 min 0 W/m 0,0 km/h (0 Bft) 100,00 %
08.07.2022 22:42 20,2 C 18,3 C 14,4 C 75 % 1029,3 hPa 0,0 l/m 0 min 0 min 0 W/m 0,0 km/h (0 Bft) 97,87 %
08.07.2022 22:44 20,1 C 18,3 C 14,4 C 75 % 1029,3 hPa 0,0 l/m 0 min 0 min 0 W/m 0,0 km/h (0 Bft) 97,87 %
08.07.2022 22:46 20,0 C 18,3 C 14,4 C 75 % 1029,3 hPa 0,0 l/m 0 min 0 min 0 W/m 0,0 km/h (0 Bft) 97,87 %
08.07.2022 22:48 19,9 C 18,3 C 14,4 C 75 % 1029,3 hPa 0,0 l/m 0 min 0 min 0 W/m 0,0 km/h (0 Bft) 95,65 %
08.07.2022 22:50 19,9 C 18,3 C 14,4 C 76 % 1029,3 hPa 0,0 l/m 0 min 0 min 0 W/m 0,0 km/h (0 Bft) 95,74 %
08.07.2022 22:52 19,8 C 17,8 C 14,4 C 76 % 1029,3 hPa 0,0 l/m 0 min 0 min 0 W/m 0,0 km/h (0 Bft) 93,62 %
08.07.2022 22:54 19,8 C 17,8 C 14,4 C 77 % 1029,3 hPa 0,0 l/m 0 min 0 min 0 W/m 0,0 km/h (0 Bft) 91,49 %
08.07.2022 22:56 19,8 C 17,8 C 14,4 C 77 % 1029,3 hPa 0,0 l/m 0 min 0 min 0 W/m 0,0 km/h (0 Bft) 95,74 %
08.07.2022 22:58 19,7 C 17,8 C 14,4 C 77 % 1029,3 hPa 0,0 l/m 0 min 0 min 0 W/m 0,0 km/h (0 Bft) 95,74 %
08.07.2022 23:00 19,7 C 17,8 C 14,4 C 77 % 1029,3 hPa 0,0 l/m 0 min 0 min 0 W/m 0,0 km/h (0 Bft) 95,65 %
08.07.2022 23:02 19,6 C 17,8 C 14,4 C 77 % 1029,3 hPa 0,0 l/m 0 min 0 min 0 W/m 0,0 km/h (0 Bft) 93,62 %
08.07.2022 23:04 19,6 C 17,8 C 14,4 C 77 % 1029,3 hPa 0,0 l/m 0 min 0 min 0 W/m 3,2 km/h (1 Bft) 93,62 %
08.07.2022 23:06 19,5 C 17,8 C 14,4 C 77 % 1029,3 hPa 0,0 l/m 0 min 0 min 0 W/m 0,0 km/h (0 Bft) 93,62 %
08.07.2022 23:08 19,4 C 17,8 C 14,4 C 77 % 1029,3 hPa 0,0 l/m 0 min 0 min 0 W/m 3,2 km/h (1 Bft) 95,74 %
08.07.2022 23:10 19,4 C 17,8 C 14,4 C 77 % 1029,2 hPa 0,0 l/m 0 min 0 min 0 W/m 3,2 km/h (1 Bft) 95,74 %
08.07.2022 23:12 19,3 C 17,8 C 14,4 C 78 % 1029,3 hPa 0,0 l/m 0 min 0 min 0 W/m 0,0 km/h (0 Bft) 97,83 %
08.07.2022 23:14 19,3 C 17,8 C 14,4 C 78 % 1029,2 hPa 0,0 l/m 0 min 0 min 0 W/m 0,0 km/h (0 Bft) 95,74 %
08.07.2022 23:16 19,2 C 17,8 C 14,4 C 78 % 1029,2 hPa 0,0 l/m 0 min 0 min 0 W/m 3,2 km/h (1 Bft) 95,74 %
08.07.2022 23:18 19,2 C 17,8 C 14,4 C 78 % 1029,2 hPa 0,0 l/m 0 min 0 min 0 W/m 0,0 km/h (0 Bft) 93,62 %
08.07.2022 23:20 19,2 C 17,8 C 14,4 C 78 % 1029,2 hPa 0,0 l/m 0 min 0 min 0 W/m 0,0 km/h (0 Bft) 95,74 %
08.07.2022 23:22 19,1 C 17,8 C 14,4 C 78 % 1029,2 hPa 0,0 l/m 0 min 0 min 0 W/m 0,0 km/h (0 Bft) 95,74 %
08.07.2022 23:24 19,1 C 17,8 C 13,9 C 78 % 1029,2 hPa 0,0 l/m 0 min 0 min 0 W/m 0,0 km/h (0 Bft) 97,83 %
08.07.2022 23:26 19,1 C 17,2 C 13,9 C 79 % 1029,2 hPa 0,0 l/m 0 min 0 min 0 W/m 0,0 km/h (0 Bft) 97,87 %
08.07.2022 23:28 19,1 C 17,2 C 13,9 C 79 % 1029,2 hPa 0,0 l/m 0 min 0 min 0 W/m 0,0 km/h (0 Bft) 97,87 %
08.07.2022 23:30 19,1 C 17,2 C 13,9 C 79 % 1029,2 hPa 0,0 l/m 0 min 0 min 0 W/m 0,0 km/h (0 Bft) 97,87 %
08.07.2022 23:32 19,1 C 17,2 C 13,9 C 79 % 1029,2 hPa 0,0 l/m 0 min 0 min 0 W/m 0,0 km/h (0 Bft) 97,87 %
08.07.2022 23:34 19,1 C 17,2 C 13,9 C 79 % 1029,2 hPa 0,0 l/m 0 min 0 min 0 W/m 0,0 km/h (0 Bft) 97,87 %
08.07.2022 23:36 18,9 C 17,2 C 13,9 C 79 % 1029,2 hPa 0,0 l/m 0 min 0 min 0 W/m 0,0 km/h (0 Bft) 95,65 %
08.07.2022 23:38 18,9 C 17,2 C 13,9 C 79 % 1029,2 hPa 0,0 l/m 0 min 0 min 0 W/m 0,0 km/h (0 Bft) 97,87 %
08.07.2022 23:40 18,9 C 17,2 C 13,9 C 80 % 1029,1 hPa 0,0 l/m 0 min 0 min 0 W/m 0,0 km/h (0 Bft) 95,74 %
08.07.2022 23:42 18,9 C 17,2 C 13,9 C 80 % 1029,1 hPa 0,0 l/m 0 min 0 min 0 W/m 0,0 km/h (0 Bft) 95,74 %
08.07.2022 23:44 18,8 C 17,2 C 13,9 C 80 % 1029,2 hPa 0,0 l/m 0 min 0 min 0 W/m 0,0 km/h (0 Bft) 97,87 %
08.07.2022 23:46 18,8 C 17,2 C 13,9 C 80 % 1029,1 hPa 0,0 l/m 0 min 0 min 0 W/m 0,0 km/h (0 Bft) 97,87 %
08.07.2022 23:48 18,8 C 17,2 C 13,9 C 80 % 1029,1 hPa 0,0 l/m 0 min 0 min 0 W/m 0,0 km/h (0 Bft) 93,48 %
08.07.2022 23:50 18,8 C 17,2 C 13,3 C 80 % 1029,1 hPa 0,0 l/m 0 min 0 min 0 W/m 0,0 km/h (0 Bft) 97,87 %
08.07.2022 23:52 18,8 C 17,2 C 13,3 C 81 % 1029,1 hPa 0,0 l/m 0 min 0 min 0 W/m 0,0 km/h (0 Bft) 95,74 %
08.07.2022 23:54 18,7 C 17,2 C 13,3 C 81 % 1029,1 hPa 0,0 l/m 0 min 0 min 0 W/m 0,0 km/h (0 Bft) 97,87 %
08.07.2022 23:56 18,7 C 17,2 C 13,3 C 81 % 1029,1 hPa 0,0 l/m 0 min 0 min 0 W/m 0,0 km/h (0 Bft) 97,87 %
08.07.2022 23:58 18,7 C 16,7 C 13,3 C 81 % 1029,1 hPa 0,0 l/m 0 min 0 min 0 W/m 0,0 km/h (0 Bft) 97,87 %
_ Min-Zeit 06:38 06:16 06:16 15:52 20:50 - - - - 02:34 15:34
Minimum _ 13,8 C 12,8 C 9,4 C 59 % 1029,0 hPa - - - - 0,0 km/h (0 Bft) 72,34 %
_ Max-Zeit 19:08 17:14 11:54 06:46 09:28 00:00 12:07 00:00 13:06 09:40 00:50
Maximum _ 24,9 C 29,4 C 22,2 C 86 % 1031,9 hPa 0,0 l/m 3 min 0 min 1110 W/m 25,7 km/h
NW (4 Bft)
100,00 %
Durchschnitt _ 19,3 C 19,6 C 15,6 C 72 % 1030,5 hPa #0,0 l/m #9:46 h #0 min. 385 W/m 9,0 km/h (2 Bft) 97,25 %
© 2022 W. Hausmann